<- Previous Day | Today | Next Day ->

All Data for 23 June 2022

 

Time A - D Temp A - D Dew Point A - D Humidity A - D Pressure A - D Wind A - D Wind Dir Gust A - D Rain Rate A - D Rain Total
00:05 16.1 14.1 88 1014.2 1.6 NE 2.2 0.0 0.0
00:07 16.1 14.1 88 1014.2 1.6 NE 2.2 0.0 0.0
00:10 16.1 14.1 88 1014.2 1.6 NE 2.2 0.0 0.0
00:00 16.2 14.2 88 1014.0 2.2 N 2.2 0.0 0.0
00:01 16.2 14.2 88 1014.0 1.6 N 2.2 0.0 0.0
00:02 16.2 14.2 88 1014.0 0.7 N 2.2 0.0 0.0
00:09 16.1 14.1 88 1014.0 1.6 NE 2.2 0.0 0.0
00:12 16.1 14.1 88 1014.0 1.6 NE 1.6 0.0 0.0
00:15 16.1 14.1 88 1014.0 1.6 NE 1.6 0.0 0.0
00:17 16.1 14.1 88 1014.0 1.6 NE 1.6 0.0 0.0
00:04 16.1 14.1 88 1013.9 1.6 N 2.2 0.0 0.0
00:08 16.1 14.1 88 1013.9 1.6 N 2.2 0.0 0.0
00:14 16.1 14.1 88 1013.9 1.6 NE 1.6 0.0 0.0
00:16 16.1 14.1 88 1013.9 1.6 NE 1.6 0.0 0.0
00:25 16.0 14.2 89 1013.9 1.6 N 2.2 0.0 0.0
00:36 15.9 14.1 89 1013.9 1.6 NE 2.2 0.0 0.0
00:06 16.1 14.1 88 1013.8 1.6 NE 2.2 0.0 0.0
00:11 16.1 14.1 88 1013.8 1.6 NE 1.6 0.0 0.0
00:13 16.1 14.1 88 1013.8 1.6 NE 1.6 0.0 0.0
00:19 16.1 14.1 88 1013.8 1.6 NE 2.2 0.0 0.0
00:21 16.0 14.2 89 1013.8 1.6 NE 2.2 0.0 0.0
00:22 16.0 14.2 89 1013.8 2.2 NE 2.2 0.0 0.0
00:27 16.0 14.2 89 1013.8 1.6 NE 2.2 0.0 0.0
00:33 15.9 14.1 89 1013.8 1.6 NE 2.2 0.0 0.0
00:20 16.0 14.0 88 1013.7 2.2 N 2.2 0.0 0.0
00:26 16.0 14.2 89 1013.7 1.6 N 2.2 0.0 0.0
00:29 16.0 14.2 89 1013.7 2.2 NE 2.2 0.0 0.0
00:30 16.0 14.2 89 1013.7 1.6 N 2.2 0.0 0.0
00:31 15.9 14.1 89 1013.7 1.6 NE 2.2 0.0 0.0
00:32 15.9 14.1 89 1013.7 1.6 N 2.2 0.0 0.0
00:35 15.9 14.1 89 1013.7 1.6 NE 2.2 0.0 0.0
00:37 15.9 14.1 89 1013.7 2.2 NE 2.2 0.0 0.0
00:43 15.9 14.1 89 1013.7 2.2 NE 3.1 0.0 0.0
00:48 15.8 14.0 89 1013.7 2.2 NE 3.1 0.0 0.0
00:49 15.8 14.0 89 1013.7 1.6 NE 3.1 0.0 0.0
00:51 15.8 14.0 89 1013.7 2.2 NE 2.2 0.0 0.0
00:23 16.0 14.2 89 1013.6 1.6 NE 2.2 0.0 0.0
00:28 16.0 14.2 89 1013.6 1.6 NE 2.2 0.0 0.0
00:39 15.9 14.1 89 1013.6 2.2 NE 2.2 0.0 0.0
00:40 15.9 14.1 89 1013.6 2.2 NE 2.2 0.0 0.0
00:42 15.9 14.1 89 1013.6 2.2 NE 3.1 0.0 0.0
00:44 15.9 14.1 89 1013.6 2.2 N 3.1 0.0 0.0
00:45 15.9 14.1 89 1013.6 2.2 N 3.1 0.0 0.0
00:46 15.8 14.0 89 1013.6 1.6 NE 3.1 0.0 0.0
00:55 15.8 14.0 89 1013.6 2.2 NE 2.2 0.0 0.0
00:56 15.8 14.0 89 1013.6 2.2 NE 2.2 0.0 0.0
00:58 15.8 14.0 89 1013.6 2.2 N 2.2 0.0 0.0
01:03 15.8 14.0 89 1013.6 1.6 NE 3.1 0.0 0.0
00:24 16.0 14.2 89 1013.5 1.6 NE 2.2 0.0 0.0
00:38 15.9 14.1 89 1013.5 2.2 E 2.2 0.0 0.0
00:41 15.9 14.1 89 1013.5 3.1 NE 3.1 0.0 0.0
00:47 15.8 14.0 89 1013.5 2.2 N 3.1 0.0 0.0
00:54 15.8 14.0 89 1013.5 2.2 NE 2.2 0.0 0.0
01:01 15.8 14.0 89 1013.5 1.6 NE 3.1 0.0 0.0
01:04 15.8 14.0 89 1013.5 1.6 NE 3.1 0.0 0.0
01:11 15.7 13.9 89 1013.5 2.2 NE 2.2 0.0 0.0
01:12 15.7 13.9 89 1013.5 2.2 NE 2.2 0.0 0.0
00:50 15.8 14.0 89 1013.4 2.2 N 3.1 0.0 0.0
00:57 15.8 14.0 89 1013.4 2.2 NE 2.2 0.0 0.0
00:59 15.8 14.0 89 1013.4 3.1 NE 3.1 0.0 0.0
01:02 15.8 14.0 89 1013.4 1.6 NE 3.1 0.0 0.0
01:06 15.8 14.0 89 1013.4 1.6 NW 3.1 0.0 0.0
01:09 15.8 14.0 89 1013.4 1.6 N 1.6 0.0 0.0
01:13 15.7 13.9 89 1013.4 2.2 NE 2.2 0.0 0.0
01:17 15.7 13.9 89 1013.4 1.6 NE 2.2 0.0 0.0
01:00 15.8 14.0 89 1013.3 1.6 NE 3.1 0.0 0.0
01:08 15.8 14.0 89 1013.3 0.7 N 3.1 0.0 0.0
01:10 15.8 14.0 89 1013.3 1.6 NE 1.6 0.0 0.0
01:14 15.7 13.9 89 1013.3 2.2 N 2.2 0.0 0.0
01:15 15.7 13.9 89 1013.3 1.6 N 2.2 0.0 0.0
00:53 15.8 14.0 89 1013.2 2.2 NE 2.2 0.0 0.0
01:05 15.8 14.0 89 1013.2 1.6 NE 3.1 0.0 0.0
01:19 15.7 13.9 89 1013.2 2.2 NE 2.2 0.0 0.0
01:21 15.7 13.9 89 1013.2 2.2 NE 2.2 0.0 0.0
01:25 15.6 13.8 89 1013.2 1.6 N 2.2 0.0 0.0
01:18 15.7 13.9 89 1013.1 1.6 NE 2.2 0.0 0.0
01:20 15.7 13.9 89 1013.1 1.6 NE 2.2 0.0 0.0
01:24 15.6 13.8 89 1013.1 2.2 N 2.2 0.0 0.0
01:27 15.6 13.8 89 1013.1 2.2 NE 2.2 0.0 0.0
01:28 15.6 13.8 89 1013.1 2.2 E 2.2 0.0 0.0
01:29 15.6 13.8 89 1013.1 1.6 N 2.2 0.0 0.0
01:30 15.6 13.8 89 1013.1 2.2 NE 2.2 0.0 0.0
01:31 15.6 13.8 89 1013.1 1.6 NE 2.2 0.0 0.0
01:32 15.6 13.8 89 1013.1 1.6 NE 2.2 0.0 0.0
01:33 15.6 13.8 89 1013.1 2.2 NE 2.2 0.0 0.0
01:34 15.6 13.8 89 1013.1 2.2 N 2.2 0.0 0.0
01:16 15.7 13.9 89 1013.0 2.2 NE 2.2 0.0 0.0
01:23 15.6 13.8 89 1013.0 2.2 NE 2.2 0.0 0.0
01:26 15.6 13.8 89 1013.0 1.6 NE 2.2 0.0 0.0
01:36 15.6 13.8 89 1013.0 2.2 NE 2.2 0.0 0.0
01:53 15.5 13.9 90 1013.0 1.6 N 2.2 0.0 0.0
01:35 15.6 13.8 89 1012.9 2.2 NE 2.2 0.0 0.0
01:39 15.6 14.0 90 1012.9 1.6 N 2.2 0.0 0.0
01:40 15.6 14.0 90 1012.9 1.6 N 2.2 0.0 0.0
01:41 15.6 14.0 90 1012.9 1.6 N 2.2 0.0 0.0
01:47 15.5 13.9 90 1012.9 0.7 NE 1.6 0.0 0.0
01:48 15.5 13.9 90 1012.9 0.7 NW 1.6 0.0 0.0
01:49 15.5 13.9 90 1012.9 2.2 NE 2.2 0.0 0.0
01:50 15.5 13.9 90 1012.9 1.6 N 2.2 0.0 0.0
01:55 15.5 13.9 90 1012.9 1.6 NW 2.2 0.0 0.0
02:06 15.5 13.9 90 1012.9 3.1 N 3.1 0.0 0.0
01:38 15.6 14.0 90 1012.8 1.6 NE 2.2 0.0 0.0
01:42 15.6 14.0 90 1012.8 0.7 NW 2.2 0.0 0.0
01:43 15.6 14.0 90 1012.8 1.6 N 2.2 0.0 0.0
01:45 15.5 13.9 90 1012.8 0.7 NW 2.2 0.0 0.0
01:52 15.5 13.9 90 1012.8 0.7 NW 2.2 0.0 0.0
01:54 15.5 13.9 90 1012.8 1.6 NW 2.2 0.0 0.0
01:57 15.5 13.9 90 1012.8 2.2 NE 2.2 0.0 0.0
01:58 15.5 13.9 90 1012.8 3.1 E 3.1 0.0 0.0
01:59 15.5 13.9 90 1012.8 3.1 N 3.1 0.0 0.0
02:00 15.5 13.9 90 1012.8 1.6 N 3.1 0.0 0.0
02:08 15.5 13.9 90 1012.8 1.6 NE 3.1 0.0 0.0
02:09 15.5 13.9 90 1012.8 1.6 NE 3.1 0.0 0.0
02:12 15.5 13.9 90 1012.8 1.6 N 3.1 0.0 0.0
02:14 15.5 13.9 90 1012.8 2.2 NE 3.1 0.0 0.0
01:44 15.6 14.0 90 1012.7 1.6 N 2.2 0.0 0.0
01:46 15.5 13.9 90 1012.7 0.7 N 2.2 0.0 0.0
01:56 15.5 13.9 90 1012.7 2.2 N 2.2 0.0 0.0
02:02 15.5 13.9 90 1012.7 2.2 N 3.1 0.0 0.0
02:03 15.5 13.9 90 1012.7 2.2 NE 3.1 0.0 0.0
02:16 15.5 13.9 90 1012.7 0.7 N 3.1 0.0 0.0
02:17 15.5 13.9 90 1012.7 1.6 NE 2.2 0.0 0.0
02:18 15.5 13.9 90 1012.7 2.2 NE 2.2 0.0 0.0
02:19 15.5 13.9 90 1012.7 3.1 NE 3.1 0.0 0.0
02:21 15.5 13.9 90 1012.7 2.2 NE 3.1 0.0 0.0
02:29 15.6 13.8 89 1012.7 2.2 NE 4.5 0.0 0.0
02:31 15.6 13.8 89 1012.7 3.1 NE 4.5 0.0 0.0
02:32 15.6 13.8 89 1012.7 3.1 NE 4.5 0.0 0.0
02:04 15.5 13.9 90 1012.6 3.1 N 3.1 0.0 0.0
02:07 15.5 13.9 90 1012.6 2.2 N 3.1 0.0 0.0
02:10 15.5 13.9 90 1012.6 1.6 NW 3.1 0.0 0.0
02:13 15.5 13.9 90 1012.6 0.7 N 3.1 0.0 0.0
02:15 15.5 13.9 90 1012.6 2.2 NE 3.1 0.0 0.0
02:22 15.5 13.7 89 1012.6 3.1 N 3.1 0.0 0.0
02:23 15.6 13.8 89 1012.6 3.8 NE 3.8 0.0 0.0
02:24 15.6 13.8 89 1012.6 2.2 ESE 3.8 0.0 0.0
02:25 15.6 13.8 89 1012.6 2.2 ESE 3.8 0.0 0.0
02:26 15.6 13.8 89 1012.6 4.5 NE 4.5 0.0 0.0
02:28 15.6 13.8 89 1012.6 3.1 NE 4.5 0.0 0.0
02:01 15.5 13.9 90 1012.5 1.6 NE 3.1 0.0 0.0
02:11 15.5 13.9 90 1012.5 1.6 N 3.1 0.0 0.0
02:27 15.6 13.8 89 1012.5 3.1 E 4.5 0.0 0.0
02:30 15.6 13.8 89 1012.5 2.2 NE 4.5 0.0 0.0
02:33 15.6 13.8 89 1012.5 2.2 NE 4.5 0.0 0.0
02:34 15.6 13.8 89 1012.5 3.1 NE 4.5 0.0 0.0
02:37 15.6 13.8 89 1012.5 2.2 E 3.1 0.0 0.0
02:42 15.6 13.8 89 1012.5 1.6 NW 3.1 0.0 0.0
02:44 15.6 13.8 89 1012.5 1.6 NW 3.1 0.0 0.0
02:47 15.6 13.8 89 1012.5 1.6 NW 3.1 0.0 0.0
02:38 15.6 13.8 89 1012.4 2.2 NE 3.1 0.0 0.0
02:45 15.6 13.8 89 1012.4 0.7 N 3.1 0.0 0.0
02:46 15.6 13.8 89 1012.4 2.2 W 3.1 0.0 0.0
02:48 15.6 13.8 89 1012.4 0.7 E 3.1 0.0 0.0
03:09 15.7 13.7 88 1012.4 3.1 NE 3.8 0.0 0.0
03:12 15.7 13.5 87 1012.4 4.5 E 4.5 0.0 0.0
03:25 15.7 13.5 87 1012.4 4.5 NE 4.5 0.0 0.0
02:35 15.6 13.8 89 1012.3 3.1 NE 4.5 0.0 0.0
02:39 15.6 13.8 89 1012.3 3.1 NE 3.1 0.0 0.0
02:40 15.6 13.8 89 1012.3 3.1 NE 3.1 0.0 0.0
02:41 15.6 13.8 89 1012.3 1.6 NE 3.1 0.0 0.0
02:43 15.6 13.8 89 1012.3 1.6 NW 3.1 0.0 0.0
02:52 15.6 13.8 89 1012.3 1.6 NE 3.8 0.0 0.0
03:03 15.6 13.8 89 1012.3 2.2 NW 2.2 0.0 0.0
03:05 15.6 13.8 89 1012.3 2.2 NW 2.2 0.0 0.0
03:06 15.7 13.7 88 1012.3 3.8 N 3.8 0.0 0.0
03:23 15.7 13.5 87 1012.3 3.8 E 4.5 0.0 0.0
03:24 15.7 13.5 87 1012.3 4.5 NE 4.5 0.0 0.0
03:26 15.6 13.5 87 1012.3 3.8 E 4.5 0.0 0.0
03:44 15.5 13.4 87 1012.3 2.2 NE 3.8 0.0 0.0
02:51 15.6 13.8 89 1012.2 3.8 NW 3.8 0.0 0.0
02:54 15.6 13.8 89 1012.2 1.6 E 3.8 0.0 0.0
02:57 15.6 13.8 89 1012.2 2.2 WNW 3.8 0.0 0.0
02:58 15.6 13.8 89 1012.2 2.2 N 3.8 0.0 0.0
02:59 15.6 13.8 89 1012.2 2.2 NE 3.8 0.0 0.0
03:00 15.6 13.8 89 1012.2 2.2 NW 3.8 0.0 0.0
03:02 15.6 13.8 89 1012.2 2.2 NW 2.2 0.0 0.0
03:10 15.7 13.7 88 1012.2 3.8 E 3.8 0.0 0.0
03:14 15.7 13.5 87 1012.2 3.1 NE 4.5 0.0 0.0
03:17 15.7 13.5 87 1012.2 3.1 N 4.5 0.0 0.0
03:19 15.7 13.5 87 1012.2 3.8 E 4.5 0.0 0.0
03:20 15.7 13.5 87 1012.2 3.8 N 4.5 0.0 0.0
03:22 15.7 13.5 87 1012.2 3.1 NE 4.5 0.0 0.0
03:28 15.6 13.5 87 1012.2 3.8 NE 4.5 0.0 0.0
03:30 15.6 13.5 87 1012.2 3.8 E 4.5 0.0 0.0
02:49 15.6 13.8 89 1012.1 0.7 W 3.1 0.0 0.0
02:53 15.6 13.8 89 1012.1 2.2 N 3.8 0.0 0.0
02:55 15.6 13.8 89 1012.1 2.2 WNW 3.8 0.0 0.0
03:01 15.6 13.8 89 1012.1 2.2 NW 3.8 0.0 0.0
03:11 15.7 13.7 88 1012.1 3.8 NE 3.8 0.0 0.0
03:13 15.7 13.5 87 1012.1 4.5 NE 4.5 0.0 0.0
03:16 15.7 13.5 87 1012.1 4.5 N 4.5 0.0 0.0
03:21 15.7 13.5 87 1012.1 3.1 NE 4.5 0.0 0.0
03:27 15.6 13.5 87 1012.1 3.8 NE 4.5 0.0 0.0
03:29 15.6 13.5 87 1012.1 3.8 NE 4.5 0.0 0.0
03:31 15.6 13.5 87 1012.1 3.8 NE 4.5 0.0 0.0
03:35 15.6 13.5 87 1012.1 3.1 N 3.8 0.0 0.0
03:36 15.6 13.5 87 1012.1 3.1 N 3.8 0.0 0.0
03:37 15.5 13.4 87 1012.1 3.8 N 3.8 0.0 0.0
03:55 15.4 13.3 87 1012.1 3.1 NE 3.1 0.0 0.0
04:19 15.4 13.6 89 1012.1 3.8 NE 3.8 0.0 0.0
04:27 15.4 13.6 89 1012.1 3.1 NE 3.8 0.0 0.0
04:30 15.3 13.5 89 1012.1 3.1 E 3.1 0.0 0.0
02:56 15.6 13.8 89 1012.0 2.2 NE 3.8 0.0 0.0
03:07 15.7 13.7 88 1012.0 3.1 N 3.8 0.0 0.0
03:08 15.7 13.7 88 1012.0 3.1 N 3.8 0.0 0.0
03:15 15.7 13.5 87 1012.0 3.8 N 4.5 0.0 0.0
03:33 15.6 13.5 87 1012.0 3.1 E 4.5 0.0 0.0
03:34 15.6 13.5 87 1012.0 3.1 N 4.5 0.0 0.0
03:38 15.5 13.4 87 1012.0 3.8 NNE 3.8 0.0 0.0
03:40 15.5 13.4 87 1012.0 3.8 NE 3.8 0.0 0.0
03:41 15.5 13.4 87 1012.0 3.1 E 3.8 0.0 0.0
03:48 15.4 13.3 87 1012.0 3.1 NE 3.8 0.0 0.0
03:50 15.4 13.3 87 1012.0 2.2 NE 3.1 0.0 0.0
03:53 15.4 13.3 87 1012.0 3.1 NE 3.1 0.0 0.0
03:54 15.4 13.3 87 1012.0 2.2 E 3.1 0.0 0.0
04:09 15.4 13.4 88 1012.0 2.2 E 3.8 0.0 0.0
04:13 15.4 13.4 88 1012.0 3.8 NE 3.8 0.0 0.0
04:17 15.4 13.6 89 1012.0 2.2 NE 3.8 0.0 0.0
04:18 15.4 13.6 89 1012.0 3.8 NE 3.8 0.0 0.0
04:21 15.4 13.6 89 1012.0 3.1 N 3.8 0.0 0.0
04:22 15.4 13.6 89 1012.0 3.1 NE 3.8 0.0 0.0
04:23 15.4 13.6 89 1012.0 2.2 NE 3.8 0.0 0.0
04:25 15.4 13.6 89 1012.0 2.2 NE 3.8 0.0 0.0
04:32 15.3 13.5 89 1012.0 3.1 NE 3.1 0.0 0.0
04:33 15.3 13.5 89 1012.0 3.1 NE 3.1 0.0 0.0
04:38 15.2 13.4 89 1012.0 3.1 N 3.1 0.0 0.0
04:55 15.0 13.4 90 1012.0 2.2 NE 3.1 0.0 0.0
04:59 15.0 13.4 90 1012.0 3.8 E 4.5 0.0 0.0
05:03 15.0 13.4 90 1012.0 3.8 N 4.5 0.0 0.0
05:05 15.0 13.4 90 1012.0 3.8 N 4.5 0.0 0.0
05:15 15.0 13.4 90 1012.0 3.1 NE 3.8 0.0 0.0
05:16 15.0 13.4 90 1012.0 3.1 NE 3.8 0.0 0.0
05:17 15.0 13.4 90 1012.0 3.1 NE 3.8 0.0 0.0
05:44 15.1 13.6 91 1012.0 3.1 N 4.5 0.0 0.0
03:39 15.5 13.4 87 1011.9 2.2 NE 3.8 0.0 0.0
03:42 15.5 13.4 87 1011.9 3.1 NE 3.8 0.0 0.0
03:43 15.5 13.4 87 1011.9 2.2 E 3.8 0.0 0.0
03:45 15.5 13.4 87 1011.9 2.2 NE 3.8 0.0 0.0
03:46 15.5 13.4 87 1011.9 2.2 NE 3.8 0.0 0.0
03:51 15.4 13.3 87 1011.9 2.2 N 3.1 0.0 0.0
03:52 15.4 13.3 87 1011.9 3.1 NE 3.1 0.0 0.0
03:56 15.4 13.3 87 1011.9 3.1 NE 3.1 0.0 0.0
03:58 15.4 13.4 88 1011.9 3.8 NE 3.8 0.0 0.0
04:00 15.4 13.4 88 1011.9 3.1 N 3.8 0.0 0.0
04:02 15.4 13.4 88 1011.9 3.8 NE 3.8 0.0 0.0
04:03 15.4 13.4 88 1011.9 3.1 E 3.8 0.0 0.0
04:06 15.4 13.4 88 1011.9 3.8 NE 3.8 0.0 0.0
04:07 15.4 13.4 88 1011.9 3.8 NE 3.8 0.0 0.0
04:08 15.4 13.4 88 1011.9 3.1 NE 3.8 0.0 0.0
04:10 15.4 13.4 88 1011.9 2.2 E 3.8 0.0 0.0
04:12 15.4 13.4 88 1011.9 3.8 NE 3.8 0.0 0.0
04:20 15.4 13.6 89 1011.9 3.1 NE 3.8 0.0 0.0
04:24 15.4 13.6 89 1011.9 2.2 NE 3.8 0.0 0.0
04:31 15.3 13.5 89 1011.9 3.1 NE 3.1 0.0 0.0
04:34 15.3 13.5 89 1011.9 3.1 NE 3.1 0.0 0.0
04:35 15.3 13.5 89 1011.9 2.2 NE 3.1 0.0 0.0
04:41 15.2 13.4 89 1011.9 3.1 NE 3.1 0.0 0.0
04:51 15.1 13.3 89 1011.9 2.2 NE 3.8 0.0 0.0
04:57 15.0 13.4 90 1011.9 2.2 NE 3.1 0.0 0.0
05:00 15.0 13.4 90 1011.9 3.8 N 4.5 0.0 0.0
05:01 15.0 13.4 90 1011.9 3.8 N 4.5 0.0 0.0
05:06 15.0 13.4 90 1011.9 3.1 NE 4.5 0.0 0.0
05:08 15.0 13.4 90 1011.9 3.1 E 4.5 0.0 0.0
05:09 15.0 13.4 90 1011.9 3.1 N 3.8 0.0 0.0
05:11 15.0 13.4 90 1011.9 3.1 NE 3.8 0.0 0.0
05:14 15.0 13.4 90 1011.9 3.1 E 3.8 0.0 0.0
05:24 15.0 13.5 91 1011.9 4.5 NE 4.5 0.0 0.0
05:29 15.0 13.5 91 1011.9 3.8 N 4.5 0.0 0.0
03:49 15.4 13.3 87 1011.8 3.1 NE 3.8 0.0 0.0
03:57 15.4 13.3 87 1011.8 3.8 NE 3.8 0.0 0.0
03:59 15.4 13.4 88 1011.8 3.1 N 3.8 0.0 0.0
04:04 15.4 13.4 88 1011.8 3.1 E 3.8 0.0 0.0
04:05 15.4 13.4 88 1011.8 3.1 E 3.8 0.0 0.0
04:11 15.4 13.4 88 1011.8 2.2 E 3.8 0.0 0.0
04:14 15.4 13.4 88 1011.8 3.1 N 3.8 0.0 0.0
04:16 15.4 13.6 89 1011.8 3.1 NE 3.8 0.0 0.0
04:26 15.4 13.6 89 1011.8 2.2 NE 3.8 0.0 0.0
04:28 15.4 13.6 89 1011.8 2.2 E 3.8 0.0 0.0
04:37 15.2 13.4 89 1011.8 2.2 N 3.1 0.0 0.0
04:39 15.2 13.4 89 1011.8 3.1 N 3.1 0.0 0.0
04:42 15.2 13.4 89 1011.8 3.8 N 3.8 0.0 0.0
04:44 15.1 13.3 89 1011.8 2.2 N 3.8 0.0 0.0
04:45 15.1 13.3 89 1011.8 2.2 N 3.8 0.0 0.0
04:46 15.1 13.3 89 1011.8 2.2 N 3.8 0.0 0.0
04:47 15.1 13.3 89 1011.8 3.1 NE 3.8 0.0 0.0
04:48 15.1 13.3 89 1011.8 3.1 NE 3.8 0.0 0.0
04:53 15.0 13.4 90 1011.8 2.2 NE 3.8 0.0 0.0
04:54 15.0 13.4 90 1011.8 2.2 NE 3.8 0.0 0.0
04:56 15.0 13.4 90 1011.8 2.2 NE 3.1 0.0 0.0
05:02 15.0 13.4 90 1011.8 3.8 N 4.5 0.0 0.0
05:04 15.0 13.4 90 1011.8 3.8 N 4.5 0.0 0.0
05:07 15.0 13.4 90 1011.8 3.1 NE 4.5 0.0 0.0
05:18 15.0 13.5 91 1011.8 2.2 NE 3.8 0.0 0.0
05:19 15.0 13.5 91 1011.8 3.1 NNE 3.8 0.0 0.0
05:21 15.0 13.5 91 1011.8 3.1 NE 4.5 0.0 0.0
05:22 15.0 13.5 91 1011.8 3.1 E 4.5 0.0 0.0
05:25 15.0 13.5 91 1011.8 3.8 NE 4.5 0.0 0.0
05:26 15.0 13.5 91 1011.8 3.1 NE 4.5 0.0 0.0
05:28 15.0 13.5 91 1011.8 3.8 N 4.5 0.0 0.0
05:33 15.0 13.5 91 1011.8 3.8 NE 4.5 0.0 0.0
05:36 15.0 13.5 91 1011.8 4.5 NE 4.5 0.0 0.0
05:37 15.0 13.5 91 1011.8 3.1 N 4.5 0.0 0.0
05:38 15.1 13.6 91 1011.8 3.1 NE 4.5 0.0 0.0
05:42 15.1 13.6 91 1011.8 3.1 NE 4.5 0.0 0.0
05:49 15.1 13.6 91 1011.8 2.2 NE 3.8 0.0 0.0
05:55 15.1 13.6 91 1011.8 3.1 NE 3.1 0.0 0.0
06:00 15.1 13.8 92 1011.8 3.1 NE 3.8 0.0 0.0
06:01 15.1 13.8 92 1011.8 3.1 NE 3.8 0.0 0.0
06:07 15.1 13.8 92 1011.8 3.8 NE 3.8 0.0 0.0
06:14 15.2 13.9 92 1011.8 3.1 NE 3.8 0.0 0.0
06:17 15.2 13.9 92 1011.8 3.1 NE 3.8 0.0 0.0
06:19 15.2 13.9 92 1011.8 3.1 N 3.8 0.0 0.0
06:41 15.6 14.3 92 1011.8 3.8 NE 4.5 0.0 0.0
04:36 15.2 13.4 89 1011.7 2.2 N 3.1 0.0 0.0
04:40 15.2 13.4 89 1011.7 3.1 N 3.1 0.0 0.0
04:52 15.0 13.2 89 1011.7 2.2 E 3.8 0.0 0.0
05:10 15.0 13.4 90 1011.7 3.8 E 3.8 0.0 0.0
05:12 15.0 13.4 90 1011.7 3.8 NE 3.8 0.0 0.0
05:20 15.0 13.5 91 1011.7 4.5 NE 4.5 0.0 0.0
05:23 15.0 13.5 91 1011.7 3.1 E 4.5 0.0 0.0
05:30 15.0 13.5 91 1011.7 4.5 NE 4.5 0.0 0.0
05:32 15.0 13.5 91 1011.7 3.8 E 4.5 0.0 0.0
05:35 15.0 13.5 91 1011.7 4.5 NE 4.5 0.0 0.0
05:39 15.1 13.6 91 1011.7 3.1 NE 4.5 0.0 0.0
05:40 15.1 13.6 91 1011.7 3.1 N 4.5 0.0 0.0
05:51 15.1 13.6 91 1011.7 2.2 N 3.8 0.0 0.0
05:53 15.1 13.6 91 1011.7 2.2 NE 3.8 0.0 0.0
06:04 15.1 13.8 92 1011.7 3.8 NE 3.8 0.0 0.0
06:05 15.1 13.8 92 1011.7 3.8 N 3.8 0.0 0.0
06:06 15.1 13.8 92 1011.7 3.8 N 3.8 0.0 0.0
06:08 15.2 13.9 92 1011.7 3.1 NE 3.8 0.0 0.0
06:09 15.2 13.9 92 1011.7 3.1 NE 3.8 0.0 0.0
06:10 15.2 13.9 92 1011.7 3.8 E 3.8 0.0 0.0
06:13 15.2 13.9 92 1011.7 2.2 NE 3.8 0.0 0.0
06:18 15.2 13.9 92 1011.7 2.2 NE 3.8 0.0 0.0
06:20 15.2 13.9 92 1011.7 3.1 NE 3.8 0.0 0.0
06:21 15.3 14.0 92 1011.7 3.1 NE 3.8 0.0 0.0
06:31 15.4 14.1 92 1011.7 3.8 NE 4.5 0.0 0.0
06:36 15.5 14.2 92 1011.7 3.8 NE 3.8 0.0 0.0
04:50 15.1 13.3 89 1011.6 2.2 NE 3.8 0.0 0.0
05:31 15.0 13.5 91 1011.6 4.5 NE 4.5 0.0 0.0
05:34 15.0 13.5 91 1011.6 3.1 NE 4.5 0.0 0.0
05:46 15.1 13.6 91 1011.6 3.1 NE 4.5 0.0 0.0
05:47 15.1 13.6 91 1011.6 3.1 NE 3.8 0.0 0.0
05:48 15.1 13.6 91 1011.6 2.2 NE 3.8 0.0 0.0
05:52 15.1 13.6 91 1011.6 3.1 NE 3.8 0.0 0.0
05:59 15.1 13.6 91 1011.6 3.1 NE 3.8 0.0 0.0
06:03 15.1 13.8 92 1011.6 3.1 E 3.8 0.0 0.0
06:15 15.2 13.9 92 1011.6 2.2 N 3.8 0.0 0.0
06:16 15.2 13.9 92 1011.6 3.1 W 3.8 0.0 0.0
06:22 15.3 14.0 92 1011.6 3.1 E 3.8 0.0 0.0
06:23 15.3 14.0 92 1011.6 3.1 NE 3.1 0.0 0.0
06:24 15.3 14.0 92 1011.6 4.5 E 4.5 0.0 0.0
06:27 15.3 14.0 92 1011.6 3.1 NE 4.5 0.0 0.0
06:28 15.3 14.0 92 1011.6 3.1 NE 4.5 0.0 0.0
06:30 15.4 14.1 92 1011.6 3.8 E 4.5 0.0 0.0
06:33 15.4 14.1 92 1011.6 3.1 NE 4.5 0.0 0.0
06:37 15.5 14.2 92 1011.6 3.8 NE 3.8 0.0 0.0
06:38 15.5 14.2 92 1011.6 4.5 E 4.5 0.0 0.0
06:45 15.7 14.4 92 1011.6 3.8 NE 4.5 0.0 0.0
06:48 15.8 14.5 92 1011.6 3.1 NE 4.5 0.0 0.0
06:49 15.8 14.5 92 1011.6 3.1 E 4.5 0.0 0.0
07:08 16.2 14.7 91 1011.6 1.6 N 3.8 0.0 0.0
07:39 17.0 15.2 89 1011.6 4.5 E 4.5 0.0 0.0
08:05 17.8 14.7 82 1011.6 5.4 E 5.4 0.0 0.0
04:49 15.1 13.3 89 1011.5 2.2 NE 3.8 0.0 0.0
05:41 15.1 13.6 91 1011.5 3.1 NE 4.5 0.0 0.0
05:45 15.1 13.6 91 1011.5 3.1 E 4.5 0.0 0.0
05:50 15.1 13.6 91 1011.5 2.2 E 3.8 0.0 0.0
05:54 15.1 13.6 91 1011.5 2.2 NE 3.1 0.0 0.0
05:57 15.1 13.6 91 1011.5 3.8 NE 3.8 0.0 0.0
05:58 15.1 13.6 91 1011.5 3.8 NE 3.8 0.0 0.0
06:02 15.1 13.8 92 1011.5 3.8 NE 3.8 0.0 0.0
06:11 15.2 13.9 92 1011.5 3.1 N 3.8 0.0 0.0
06:25 15.3 14.0 92 1011.5 3.1 NE 4.5 0.0 0.0
06:32 15.4 14.1 92 1011.5 3.8 N 4.5 0.0 0.0
06:35 15.5 14.2 92 1011.5 3.1 NE 4.5 0.0 0.0
06:39 15.5 14.2 92 1011.5 3.8 N 4.5 0.0 0.0
06:42 15.6 14.3 92 1011.5 3.8 N 4.5 0.0 0.0
06:43 15.6 14.3 92 1011.5 3.8 NE 4.5 0.0 0.0
06:44 15.7 14.4 92 1011.5 3.8 NE 4.5 0.0 0.0
06:46 15.7 14.4 92 1011.5 3.8 NE 4.5 0.0 0.0
06:47 15.7 14.4 92 1011.5 3.1 NE 4.5 0.0 0.0
06:52 15.9 14.4 91 1011.5 3.1 NE 4.5 0.0 0.0
06:56 16.0 14.5 91 1011.5 3.8 NE 4.5 0.0 0.0
07:05 16.0 14.5 91 1011.5 3.8 N 4.5 0.0 0.0
07:16 16.4 14.9 91 1011.5 3.8 E 3.8 0.0 0.0
07:24 16.6 15.0 90 1011.5 4.5 N 5.4 0.0 0.0
07:36 17.0 15.2 89 1011.5 3.1 E 4.5 0.0 0.0
07:51 17.4 15.2 87 1011.5 3.8 N 5.4 0.0 0.0
08:00 17.6 14.7 83 1011.5 4.5 E 4.5 0.0 0.0
08:22 18.2 15.1 82 1011.5 4.5 NE 4.5 0.0 0.0
08:28 18.3 15.0 81 1011.5 1.6 NE 4.5 0.0 0.0
06:29 15.3 14.0 92 1011.4 3.8 N 4.5 0.0 0.0
06:34 15.4 14.1 92 1011.4 3.1 NE 4.5 0.0 0.0
06:57 16.0 14.5 91 1011.4 3.1 NE 4.5 0.0 0.0
07:02 16.0 14.5 91 1011.4 3.8 N 4.5 0.0 0.0
07:04 16.0 14.5 91 1011.4 3.8 N 4.5 0.0 0.0
07:06 16.2 14.7 91 1011.4 3.1 NE 3.8 0.0 0.0
07:09 16.2 14.7 91 1011.4 3.1 NW 3.8 0.0 0.0
07:11 16.3 14.8 91 1011.4 3.1 NE 3.8 0.0 0.0
07:21 16.5 15.0 91 1011.4 3.1 NE 3.8 0.0 0.0
07:22 16.6 15.0 90 1011.4 3.1 NE 3.8 0.0 0.0
07:27 16.7 15.1 90 1011.4 3.8 N 5.4 0.0 0.0
07:28 16.7 15.1 90 1011.4 3.1 SE 5.4 0.0 0.0
07:35 16.9 15.1 89 1011.4 3.1 NE 4.5 0.0 0.0
07:44 17.2 15.2 88 1011.4 3.1 E 4.5 0.0 0.0
07:45 17.2 15.2 88 1011.4 3.1 NE 4.5 0.0 0.0
07:46 17.2 15.2 88 1011.4 4.5 NE 4.5 0.0 0.0
07:54 17.5 14.6 83 1011.4 3.8 NE 5.4 0.0 0.0
07:58 17.6 14.7 83 1011.4 3.8 NE 4.5 0.0 0.0
08:01 17.7 14.8 83 1011.4 5.4 E 5.4 0.0 0.0
08:04 17.8 14.9 83 1011.4 4.5 E 5.4 0.0 0.0
08:07 17.8 14.7 82 1011.4 3.8 NE 5.4 0.0 0.0
08:13 18.0 14.9 82 1011.4 2.2 NE 5.4 0.0 0.0
08:16 18.1 15.0 82 1011.4 4.5 E 4.5 0.0 0.0
08:18 18.1 15.0 82 1011.4 3.1 NE 4.5 0.0 0.0
08:23 18.2 15.1 82 1011.4 3.8 W 4.5 0.0 0.0
08:30 18.4 15.1 81 1011.4 2.2 E 4.5 0.0 0.0
08:33 18.5 15.2 81 1011.4 0.0 NE 3.1 0.0 0.0
08:41 18.5 15.2 81 1011.4 0.7 NW 1.6 0.0 0.0
08:44 18.6 15.3 81 1011.4 1.6 NW 2.2 0.0 0.0
06:53 15.9 14.4 91 1011.3 3.1 NE 4.5 0.0 0.0
06:55 16.0 14.5 91 1011.3 4.5 N 4.5 0.0 0.0
06:58 16.0 14.5 91 1011.3 3.1 NE 4.5 0.0 0.0
06:59 16.0 14.5 91 1011.3 3.1 N 4.5 0.0 0.0
07:00 16.0 14.5 91 1011.3 3.8 N 4.5 0.0 0.0
07:01 16.0 14.5 91 1011.3 3.8 N 4.5 0.0 0.0
07:10 16.2 14.7 91 1011.3 3.1 N 3.8 0.0 0.0
07:12 16.3 14.8 91 1011.3 2.2 E 3.8 0.0 0.0
07:13 16.3 14.8 91 1011.3 2.2 E 3.8 0.0 0.0
07:15 16.4 14.9 91 1011.3 3.1 E 3.8 0.0 0.0
07:17 16.4 14.9 91 1011.3 3.8 NE 3.8 0.0 0.0
07:18 16.4 14.9 91 1011.3 3.8 NE 3.8 0.0 0.0
07:19 16.4 14.9 91 1011.3 3.8 NE 3.8 0.0 0.0
07:20 16.5 15.0 91 1011.3 3.1 NE 3.8 0.0 0.0
07:25 16.6 15.0 90 1011.3 4.5 N 5.4 0.0 0.0
07:34 16.9 15.1 89 1011.3 3.1 NE 4.5 0.0 0.0
07:38 17.0 15.2 89 1011.3 3.8 E 4.5 0.0 0.0
07:40 17.1 15.3 89 1011.3 3.1 NE 4.5 0.0 0.0
07:41 17.1 15.3 89 1011.3 3.1 NE 4.5 0.0 0.0
07:43 17.1 15.1 88 1011.3 4.5 NE 4.5 0.0 0.0
07:48 17.3 15.3 88 1011.3 3.1 NE 5.4 0.0 0.0
07:50 17.4 15.2 87 1011.3 2.2 NE 5.4 0.0 0.0
07:53 17.5 14.6 83 1011.3 3.1 NE 5.4 0.0 0.0
07:55 17.5 14.6 83 1011.3 3.8 NE 5.4 0.0 0.0
07:57 17.5 14.6 83 1011.3 4.5 NE 5.4 0.0 0.0
07:59 17.6 14.7 83 1011.3 4.5 NE 4.5 0.0 0.0
08:02 17.7 14.8 83 1011.3 3.8 N 5.4 0.0 0.0
08:03 17.7 14.8 83 1011.3 4.5 E 5.4 0.0 0.0
08:08 17.9 14.8 82 1011.3 4.5 NE 5.4 0.0 0.0
08:09 17.9 14.8 82 1011.3 4.5 N 5.4 0.0 0.0
08:10 17.9 14.8 82 1011.3 4.5 E 5.4 0.0 0.0
08:11 18.0 14.9 82 1011.3 3.8 NNE 5.4 0.0 0.0
08:12 18.0 14.9 82 1011.3 3.1 E 5.4 0.0 0.0
08:14 18.0 14.9 82 1011.3 2.2 NW 5.4 0.0 0.0
08:19 18.1 15.0 82 1011.3 2.2 N 4.5 0.0 0.0
08:24 18.2 15.1 82 1011.3 3.1 N 4.5 0.0 0.0
08:26 18.3 15.2 82 1011.3 1.6 SE 4.5 0.0 0.0
08:29 18.4 15.1 81 1011.3 2.2 NW 4.5 0.0 0.0
08:31 18.4 15.1 81 1011.3 1.6 E 4.5 0.0 0.0
08:36 18.5 15.2 81 1011.3 0.7 W 2.2 0.0 0.0
08:37 18.5 15.2 81 1011.3 0.0 NW 2.2 0.0 0.0
08:38 18.5 15.2 81 1011.3 0.7 NE 2.2 0.0 0.0
08:40 18.5 15.2 81 1011.3 0.7 NW 2.2 0.0 0.0
08:45 18.6 15.3 81 1011.3 1.6 N 2.2 0.0 0.0
08:46 18.6 15.3 81 1011.3 0.7 NW 2.2 0.0 0.0
08:47 18.7 15.4 81 1011.3 0.7 NW 2.2 0.0 0.0
09:14 20.0 16.3 79 1011.3 1.6 N 2.2 0.0 0.0
09:22 20.4 16.7 79 1011.3 2.2 N 2.2 0.0 0.0
06:50 15.8 14.3 91 1011.2 3.1 NE 4.5 0.0 0.0
06:51 15.9 14.4 91 1011.2 3.1 NE 4.5 0.0 0.0
07:03 16.0 14.5 91 1011.2 3.8 N 4.5 0.0 0.0
07:14 16.3 14.8 91 1011.2 3.1 E 3.8 0.0 0.0
07:26 16.7 15.1 90 1011.2 3.8 NE 5.4 0.0 0.0
07:29 16.7 15.1 90 1011.2 3.8 N 5.4 0.0 0.0
07:30 16.8 15.2 90 1011.2 4.5 NE 5.4 0.0 0.0
07:32 16.8 15.2 90 1011.2 3.1 NE 5.4 0.0 0.0
07:33 16.9 15.1 89 1011.2 3.1 NE 5.4 0.0 0.0
07:56 17.5 14.6 83 1011.2 4.5 NE 5.4 0.0 0.0
08:15 18.0 14.9 82 1011.2 3.8 NE 5.4 0.0 0.0
08:17 18.1 15.0 82 1011.2 4.5 N 4.5 0.0 0.0
08:21 18.2 15.1 82 1011.2 4.5 NE 4.5 0.0 0.0
08:25 18.3 15.2 82 1011.2 3.1 E 4.5 0.0 0.0
08:32 18.4 15.1 81 1011.2 0.7 NE 3.8 0.0 0.0
08:35 18.5 15.2 81 1011.2 0.7 WNW 2.2 0.0 0.0
08:39 18.5 15.2 81 1011.2 0.7 NW 2.2 0.0 0.0
08:43 18.6 15.3 81 1011.2 2.2 N 2.2 0.0 0.0
08:49 18.7 15.6 82 1011.2 1.6 N 2.2 0.0 0.0
08:52 18.8 15.7 82 1011.2 1.6 N 2.2 0.0 0.0
08:53 18.8 15.7 82 1011.2 1.6 N 2.2 0.0 0.0
08:54 18.9 15.8 82 1011.2 1.6 N 2.2 0.0 0.0
08:56 19.0 15.9 82 1011.2 0.7 NW 2.2 0.0 0.0
09:04 19.4 16.1 81 1011.2 1.6 N 2.2 0.0 0.0
07:31 16.8 15.2 90 1011.1 4.5 NE 5.4 0.0 0.0
07:47 17.3 15.3 88 1011.1 5.4 E 5.4 0.0 0.0
07:49 17.3 15.1 87 1011.1 3.1 NE 5.4 0.0 0.0
08:27 18.3 15.0 81 1011.1 0.7 WNW 4.5 0.0 0.0
08:42 18.6 15.3 81 1011.1 0.7 N 1.6 0.0 0.0
08:50 18.7 15.6 82 1011.1 1.6 NE 2.2 0.0 0.0
08:51 18.8 15.7 82 1011.1 2.2 NE 2.2 0.0 0.0
08:55 18.9 15.8 82 1011.1 0.7 NW 2.2 0.0 0.0
08:58 19.1 16.0 82 1011.1 1.6 N 2.2 0.0 0.0
09:02 19.3 16.0 81 1011.1 2.2 W 2.2 0.0 0.0
09:06 19.5 16.2 81 1011.1 1.6 NW 2.2 0.0 0.0
09:09 19.6 16.1 80 1011.1 0.0 N 2.2 0.0 0.0
09:10 19.7 16.2 80 1011.1 2.2 E 2.2 0.0 0.0
09:11 19.8 16.3 80 1011.1 2.2 NE 2.2 0.0 0.0
09:15 20.0 16.3 79 1011.1 1.6 NW 2.2 0.0 0.0
09:19 20.2 16.5 79 1011.1 0.7 W 2.2 0.0 0.0
09:30 20.9 16.9 78 1011.1 1.6 N 2.2 0.0 0.0
09:35 21.2 17.0 77 1011.1 2.2 E 3.1 0.0 0.0
09:43 21.5 16.5 73 1011.1 2.2 S 3.1 0.0 0.0
09:51 21.4 15.9 71 1011.1 3.1 S 5.4 0.0 0.0
09:58 21.2 15.5 70 1011.1 2.2 SW 4.5 0.0 0.0
10:02 21.2 15.7 71 1011.1 1.6 SW 4.5 0.0 0.0
10:03 21.2 15.7 71 1011.1 1.6 SW 4.5 0.0 0.0
07:42 17.1 15.3 89 1011.0 4.5 N 4.5 0.0 0.0
08:57 19.0 15.9 82 1011.0 0.0 NW 2.2 0.0 0.0
08:59 19.1 15.8 81 1011.0 2.2 NW 2.2 0.0 0.0
09:00 19.2 15.9 81 1011.0 2.2 N 2.2 0.0 0.0
09:01 19.2 15.9 81 1011.0 2.2 N 2.2 0.0 0.0
09:05 19.4 16.1 81 1011.0 2.2 N 2.2 0.0 0.0
09:07 19.5 16.0 80 1011.0 0.7 NW 2.2 0.0 0.0
09:12 19.8 16.3 80 1011.0 2.2 NE 2.2 0.0 0.0
09:13 19.9 16.4 80 1011.0 2.2 NE 2.2 0.0 0.0
09:21 20.3 16.6 79 1011.0 0.7 NE 2.2 0.0 0.0
09:24 20.6 16.8 79 1011.0 1.6 N 2.2 0.0 0.0
09:29 20.8 16.8 78 1011.0 0.7 SW 2.2 0.0 0.0
09:34 21.2 17.0 77 1011.0 2.2 NE 3.1 0.0 0.0
09:40 21.5 16.7 74 1011.0 0.7 SW 3.1 0.0 0.0
09:46 21.5 16.3 72 1011.0 5.4 S 5.4 0.0 0.0
09:49 21.5 16.3 72 1011.0 3.8 SW 5.4 0.0 0.0
09:50 21.4 15.9 71 1011.0 3.8 SW 5.4 0.0 0.0
09:53 21.3 15.8 71 1011.0 4.5 W 5.4 0.0 0.0
09:55 21.2 15.5 70 1011.0 3.1 SW 5.4 0.0 0.0
09:57 21.2 15.5 70 1011.0 2.2 NW 4.5 0.0 0.0
09:59 21.2 15.5 70 1011.0 2.2 SW 4.5 0.0 0.0
10:01 21.2 15.7 71 1011.0 1.6 SW 4.5 0.0 0.0
10:04 21.2 15.7 71 1011.0 1.6 SW 3.1 0.0 0.0
10:06 21.3 16.3 73 1011.0 3.8 NW 4.5 0.0 0.0
10:16 21.3 16.5 74 1011.0 3.8 SSE 4.5 0.0 0.0
10:24 21.3 16.7 75 1011.0 4.5 SW 5.4 0.0 0.0
09:08 19.5 16.0 80 1010.9 0.0 NW 2.2 0.0 0.0
09:16 20.0 16.3 79 1010.9 0.7 N 2.2 0.0 0.0
09:17 20.1 16.4 79 1010.9 0.7 NW 2.2 0.0 0.0
09:20 20.3 16.6 79 1010.9 0.7 NE 2.2 0.0 0.0
09:25 20.7 16.9 79 1010.9 2.2 N 2.2 0.0 0.0
09:31 21.0 17.0 78 1010.9 1.6 E 2.2 0.0 0.0
09:32 21.0 17.0 78 1010.9 1.6 E 2.2 0.0 0.0
09:37 21.3 16.9 76 1010.9 0.7 S 3.1 0.0 0.0
09:38 21.4 17.0 76 1010.9 2.2 SW 3.1 0.0 0.0
09:41 21.4 16.4 73 1010.9 3.1 S 3.1 0.0 0.0
09:42 21.4 16.4 73 1010.9 2.2 S 3.1 0.0 0.0
09:44 21.5 16.3 72 1010.9 1.6 S 3.1 0.0 0.0
09:45 21.5 16.3 72 1010.9 1.6 SE 3.1 0.0 0.0
09:47 21.5 16.3 72 1010.9 5.4 SW 5.4 0.0 0.0
09:52 21.3 15.8 71 1010.9 4.5 SW 5.4 0.0 0.0
09:56 21.2 15.5 70 1010.9 3.1 SW 5.4 0.0 0.0
10:05 21.3 16.3 73 1010.9 4.5 S 4.5 0.0 0.0
10:08 21.3 16.7 75 1010.9 4.5 SW 4.5 0.0 0.0
10:10 21.4 16.8 75 1010.9 4.5 W 4.5 0.0 0.0
10:20 21.2 16.4 74 1010.9 3.1 SW 5.4 0.0 0.0
10:21 21.2 16.4 74 1010.9 4.5 SW 5.4 0.0 0.0
10:22 21.2 16.6 75 1010.9 3.8 SW 5.4 0.0 0.0
10:30 21.2 16.8 76 1010.9 3.8 SSE 5.4 0.0 0.0
10:52 22.0 18.2 79 1010.9 5.4 SW 6.0 0.0 0.0
10:57 22.5 18.7 79 1010.9 3.8 W 9.8 0.0 0.0
12:01 22.4 15.3 64 1010.9 8.3 W 11.4 0.0 0.0
12:07 21.9 15.0 65 1010.9 9.8 SW 12.1 0.0 0.0
12:35 22.7 14.3 59 1010.9 8.3 SW 14.5 0.0 0.0
12:36 22.6 14.5 60 1010.9 8.3 SW 14.5 0.0 0.0
12:39 22.7 14.8 61 1010.9 6.9 SW 10.7 0.0 0.0
12:41 22.6 14.5 60 1010.9 8.3 S 10.7 0.0 0.0
12:45 22.3 15.2 64 1010.9 9.2 SW 9.2 0.0 0.0
12:51 22.3 15.2 64 1010.9 6.9 W 9.8 0.0 0.0
13:10 22.6 14.5 60 1010.9 12.1 SW 12.1 0.0 0.0
14:11 22.6 14.7 61 1010.9 8.3 SW 9.8 0.0 0.0
09:26 20.7 16.7 78 1010.8 2.2 NE 2.2 0.0 0.0
09:27 20.7 16.7 78 1010.8 2.2 NW 2.2 0.0 0.0
09:28 20.8 16.8 78 1010.8 1.6 N 2.2 0.0 0.0
09:33 21.1 16.9 77 1010.8 3.1 NE 3.1 0.0 0.0
09:36 21.3 17.1 77 1010.8 2.2 S 3.1 0.0 0.0
10:00 21.2 15.7 71 1010.8 1.6 SW 4.5 0.0 0.0
10:07 21.3 16.3 73 1010.8 3.8 NW 4.5 0.0 0.0
10:14 21.3 16.5 74 1010.8 3.8 SW 4.5 0.0 0.0
10:15 21.3 16.5 74 1010.8 3.8 SW 4.5 0.0 0.0
10:17 21.3 16.5 74 1010.8 3.8 S 4.5 0.0 0.0
10:18 21.3 16.3 73 1010.8 5.4 W 5.4 0.0 0.0
10:19 21.3 16.3 73 1010.8 5.4 W 5.4 0.0 0.0
10:23 21.3 16.7 75 1010.8 5.4 W 5.4 0.0 0.0
10:26 21.3 16.7 75 1010.8 3.8 S 5.4 0.0 0.0
10:27 21.2 16.6 75 1010.8 3.1 SW 5.4 0.0 0.0
10:28 21.2 16.6 75 1010.8 4.5 S 5.4 0.0 0.0
10:29 21.2 16.6 75 1010.8 4.5 S 5.4 0.0 0.0
10:33 21.3 16.9 76 1010.8 3.8 SW 5.4 0.0 0.0
10:42 21.4 16.8 75 1010.8 4.5 S 5.4 0.0 0.0
10:44 21.4 17.0 76 1010.8 4.5 SW 5.4 0.0 0.0
10:45 21.4 17.0 76 1010.8 4.5 SW 5.4 0.0 0.0
10:46 21.5 17.3 77 1010.8 3.1 W 5.4 0.0 0.0
10:55 22.3 18.5 79 1010.8 9.8 SW 9.8 0.0 0.0
10:58 22.5 18.7 79 1010.8 2.2 W 9.8 0.0 0.0
11:12 22.5 18.3 77 1010.8 5.4 S 5.4 0.0 0.0
11:22 22.4 19.2 82 1010.8 3.8 W 5.4 0.0 0.0
11:30 22.9 18.3 75 1010.8 4.5 SW 9.2 0.0 0.0
11:43 22.6 18.2 76 1010.8 3.8 SW 6.9 0.0 0.0
11:47 22.9 17.8 73 1010.8 7.6 SW 7.6 0.0 0.0
11:51 23.0 16.6 67 1010.8 9.2 SW 10.7 0.0 0.0
11:54 23.0 14.8 60 1010.8 9.8 SW 11.4 0.0 0.0
11:57 22.8 14.6 60 1010.8 8.3 S 11.4 0.0 0.0
12:00 22.4 15.3 64 1010.8 8.3 W 11.4 0.0 0.0
12:20 22.4 16.0 67 1010.8 9.8 S 12.1 0.0 0.0
12:22 22.6 15.2 63 1010.8 7.6 S 12.1 0.0 0.0
12:32 22.8 14.6 60 1010.8 10.7 SW 14.5 0.0 0.0
12:33 22.8 14.6 60 1010.8 8.3 S 14.5 0.0 0.0
12:49 22.3 15.4 65 1010.8 9.8 S 9.8 0.0 0.0
13:00 22.2 14.8 63 1010.8 10.7 S 10.7 0.0 0.0
13:06 22.5 14.4 60 1010.8 9.2 SW 10.7 0.0 0.0
13:07 22.5 14.6 61 1010.8 7.6 W 10.7 0.0 0.0
13:09 22.5 14.4 60 1010.8 7.6 SW 10.7 0.0 0.0
13:17 22.3 14.9 63 1010.8 9.2 SW 12.1 0.0 0.0
13:35 22.0 14.4 62 1010.8 7.6 SSW 9.8 0.0 0.0
13:51 21.9 15.3 66 1010.8 10.7 SW 10.7 0.0 0.0
13:58 22.0 15.6 67 1010.8 7.6 SW 10.7 0.0 0.0
14:02 22.3 15.7 66 1010.8 8.3 S 9.2 0.0 0.0
14:15 22.1 15.2 65 1010.8 8.3 W 10.7 0.0 0.0
14:20 22.0 16.1 69 1010.8 8.3 S 10.7 0.0 0.0
09:18 20.2 16.5 79 1010.7 1.6 NW 2.2 0.0 0.0
09:48 21.5 16.3 72 1010.7 3.8 W 5.4 0.0 0.0
10:11 21.4 16.8 75 1010.7 4.5 W 4.5 0.0 0.0
10:12 21.3 16.5 74 1010.7 3.8 S 4.5 0.0 0.0
10:13 21.3 16.5 74 1010.7 3.8 S 4.5 0.0 0.0
10:31 21.3 16.9 76 1010.7 4.5 S 5.4 0.0 0.0
10:32 21.3 16.9 76 1010.7 4.5 SW 5.4 0.0 0.0
10:34 21.3 16.7 75 1010.7 1.6 SE 5.4 0.0 0.0
10:35 21.3 16.7 75 1010.7 3.1 SW 4.5 0.0 0.0
10:43 21.4 16.8 75 1010.7 4.5 S 5.4 0.0 0.0
10:48 21.6 17.8 79 1010.7 6.0 SW 6.0 0.0 0.0
10:51 21.7 17.9 79 1010.7 5.4 W 6.0 0.0 0.0
10:53 22.2 18.4 79 1010.7 5.4 S 6.0 0.0 0.0
10:54 22.2 18.4 79 1010.7 9.8 NE 9.8 0.0 0.0
11:00 22.6 18.8 79 1010.7 3.8 W 9.8 0.0 0.0
11:02 22.7 18.9 79 1010.7 4.5 NW 9.8 0.0 0.0
11:04 22.9 19.1 79 1010.7 3.1 NW 9.8 0.0 0.0
11:05 22.9 19.1 79 1010.7 5.4 NW 9.8 0.0 0.0
11:13 22.4 18.8 80 1010.7 5.4 W 5.4 0.0 0.0
11:19 22.2 18.6 80 1010.7 3.8 W 5.4 0.0 0.0
11:20 22.2 18.6 80 1010.7 3.8 W 5.4 0.0 0.0
11:21 22.3 18.9 81 1010.7 4.5 W 5.4 0.0 0.0
11:44 22.7 18.3 76 1010.7 4.5 SW 6.9 0.0 0.0
11:50 23.0 16.6 67 1010.7 9.8 SW 10.7 0.0 0.0
11:52 23.0 16.3 66 1010.7 9.2 SW 10.7 0.0 0.0
11:53 23.1 15.9 64 1010.7 9.2 S 10.7 0.0 0.0
11:55 22.9 15.0 61 1010.7 9.8 SW 11.4 0.0 0.0
11:56 22.9 15.0 61 1010.7 9.8 SW 11.4 0.0 0.0
11:58 22.6 14.5 60 1010.7 9.8 SW 11.4 0.0 0.0
12:03 22.4 15.3 64 1010.7 8.3 W 11.4 0.0 0.0
12:04 22.4 15.3 64 1010.7 8.3 W 10.7 0.0 0.0
12:06 22.0 15.1 65 1010.7 8.3 SW 12.1 0.0 0.0
12:08 21.8 15.2 66 1010.7 6.0 SW 12.1 0.0 0.0
12:09 21.8 15.4 67 1010.7 6.0 S 12.1 0.0 0.0
12:10 21.8 15.4 67 1010.7 7.6 S 12.1 0.0 0.0
12:14 21.9 15.5 67 1010.7 12.1 S 12.1 0.0 0.0
12:17 22.1 16.2 69 1010.7 9.8 W 12.1 0.0 0.0
12:19 22.4 15.8 66 1010.7 10.7 S 12.1 0.0 0.0
12:26 22.9 15.3 62 1010.7 14.5 SW 14.5 0.0 0.0
12:29 22.9 15.0 61 1010.7 9.8 S 14.5 0.0 0.0
12:40 22.6 14.5 60 1010.7 6.9 S 10.7 0.0 0.0
12:46 22.3 15.2 64 1010.7 8.3 W 9.2 0.0 0.0
12:53 22.2 14.6 62 1010.7 7.6 S 9.8 0.0 0.0
12:55 22.1 14.5 62 1010.7 8.3 S 9.8 0.0 0.0
12:57 22.1 15.0 64 1010.7 10.7 S 10.7 0.0 0.0
13:01 22.2 14.8 63 1010.7 10.7 S 10.7 0.0 0.0
13:05 22.5 14.6 61 1010.7 9.8 SW 10.7 0.0 0.0
13:11 22.6 14.5 60 1010.7 11.4 SW 12.1 0.0 0.0
13:13 22.5 14.1 59 1010.7 8.3 S 12.1 0.0 0.0
13:22 22.4 14.8 62 1010.7 8.3 W 12.1 0.0 0.0
13:24 22.4 15.0 63 1010.7 8.3 W 12.1 0.0 0.0
13:28 22.3 15.2 64 1010.7 9.2 W 9.8 0.0 0.0
13:30 22.2 15.1 64 1010.7 9.8 S 9.8 0.0 0.0
13:36 22.0 14.4 62 1010.7 6.0 W 9.8 0.0 0.0
13:41 21.8 14.9 65 1010.7 6.9 SW 9.8 0.0 0.0
13:42 21.8 14.9 65 1010.7 6.9 SW 9.8 0.0 0.0
13:46 21.9 15.5 67 1010.7 7.6 SW 9.8 0.0 0.0
13:47 21.9 15.3 66 1010.7 7.6 SW 9.2 0.0 0.0
13:48 21.9 15.3 66 1010.7 6.0 W 9.2 0.0 0.0
13:50 21.9 15.5 67 1010.7 10.7 SW 10.7 0.0 0.0
13:57 22.0 15.8 68 1010.7 6.9 SE 10.7 0.0 0.0
13:59 22.1 15.7 67 1010.7 9.2 SW 10.7 0.0 0.0
14:00 22.2 16.3 69 1010.7 8.3 SW 10.7 0.0 0.0
14:10 22.6 14.7 61 1010.7 9.2 SW 9.8 0.0 0.0
14:14 22.2 15.1 64 1010.7 9.8 S 10.7 0.0 0.0
14:23 21.9 16.0 69 1010.7 8.3 W 12.1 0.0 0.0
10:36 21.3 16.9 76 1010.6 3.8 SW 4.5 0.0 0.0
10:37 21.3 16.9 76 1010.6 4.5 SW 4.5 0.0 0.0
10:38 21.4 17.0 76 1010.6 2.2 SW 4.5 0.0 0.0
10:39 21.4 16.8 75 1010.6 3.8 SW 4.5 0.0 0.0
10:40 21.5 16.9 75 1010.6 4.5 S 4.5 0.0 0.0
10:47 21.6 17.6 78 1010.6 5.4 SW 5.4 0.0 0.0
10:49 21.6 17.8 79 1010.6 5.4 SW 6.0 0.0 0.0
10:59 22.5 18.7 79 1010.6 2.2 W 9.8 0.0 0.0
11:01 22.6 18.8 79 1010.6 3.8 W 9.8 0.0 0.0
11:03 22.8 19.2 80 1010.6 3.1 W 9.8 0.0 0.0
11:06 23.0 19.2 79 1010.6 3.1 NW 6.0 0.0 0.0
11:07 23.0 19.2 79 1010.6 3.8 W 5.4 0.0 0.0
11:09 22.9 18.9 78 1010.6 5.4 SW 5.4 0.0 0.0
11:10 22.8 18.6 77 1010.6 4.5 SW 5.4 0.0 0.0
11:15 22.3 18.7 80 1010.6 3.8 S 5.4 0.0 0.0
11:17 22.3 18.7 80 1010.6 3.8 SW 5.4 0.0 0.0
11:18 22.2 18.6 80 1010.6 3.8 W 5.4 0.0 0.0
11:23 22.5 18.9 80 1010.6 5.4 SW 5.4 0.0 0.0
11:26 22.7 18.9 79 1010.6 6.9 SW 9.2 0.0 0.0
11:29 22.9 18.7 77 1010.6 6.9 SW 9.2 0.0 0.0
11:31 22.8 17.9 74 1010.6 4.5 S 9.2 0.0 0.0
11:34 22.5 17.2 72 1010.6 6.0 NW 9.2 0.0 0.0
11:35 22.4 18.0 76 1010.6 3.8 NW 8.3 0.0 0.0
11:36 22.3 18.1 77 1010.6 6.9 NW 8.3 0.0 0.0
11:37 22.3 18.1 77 1010.6 6.9 NW 8.3 0.0 0.0
11:38 22.3 18.1 77 1010.6 3.8 W 6.9 0.0 0.0
11:40 22.4 18.6 79 1010.6 5.4 S 6.9 0.0 0.0
11:41 22.5 18.1 76 1010.6 5.4 WSW 6.9 0.0 0.0
11:46 22.9 18.0 74 1010.6 6.0 W 7.6 0.0 0.0
11:49 23.0 17.0 69 1010.6 9.8 W 10.7 0.0 0.0
11:59 22.5 14.4 60 1010.6 10.7 SW 11.4 0.0 0.0
12:11 21.8 15.9 69 1010.6 7.6 S 12.1 0.0 0.0
12:13 21.9 16.0 69 1010.6 8.3 SW 12.1 0.0 0.0
12:16 22.0 15.8 68 1010.6 9.2 W 12.1 0.0 0.0
12:18 22.3 15.7 66 1010.6 11.4 SW 12.1 0.0 0.0
12:21 22.5 15.1 63 1010.6 9.2 S 12.1 0.0 0.0
12:24 22.7 14.8 61 1010.6 6.9 SSW 12.1 0.0 0.0
12:28 22.9 15.0 61 1010.6 9.2 SW 14.5 0.0 0.0
12:31 22.9 14.7 60 1010.6 10.7 S 14.5 0.0 0.0
12:34 22.8 14.6 60 1010.6 8.3 S 14.5 0.0 0.0
12:37 22.6 14.5 60 1010.6 9.2 S 14.5 0.0 0.0
12:42 22.4 14.8 62 1010.6 8.3 SW 10.7 0.0 0.0
12:43 22.4 14.8 62 1010.6 6.0 S 9.2 0.0 0.0
12:44 22.3 15.4 65 1010.6 9.2 S 9.2 0.0 0.0
12:47 22.3 15.2 64 1010.6 7.6 WNW 9.2 0.0 0.0
12:50 22.3 14.9 63 1010.6 9.2 S 9.8 0.0 0.0
12:52 22.2 15.1 64 1010.6 8.3 S 9.8 0.0 0.0
12:56 22.1 14.5 62 1010.6 7.6 WSW 9.8 0.0 0.0
13:02 22.3 15.2 64 1010.6 9.8 SW 10.7 0.0 0.0
13:04 22.4 15.5 65 1010.6 10.7 SW 10.7 0.0 0.0
13:08 22.5 14.6 61 1010.6 7.6 SW 10.7 0.0 0.0
13:15 22.4 15.0 63 1010.6 10.7 SW 12.1 0.0 0.0
13:18 22.3 14.9 63 1010.6 6.9 S 12.1 0.0 0.0
13:21 22.4 15.0 63 1010.6 8.3 SW 12.1 0.0 0.0
13:27 22.4 15.5 65 1010.6 9.2 W 9.2 0.0 0.0
13:29 22.2 15.1 64 1010.6 9.2 SW 9.8 0.0 0.0
13:31 22.2 15.3 65 1010.6 7.6 SE 9.8 0.0 0.0
13:32 22.1 15.5 66 1010.6 7.6 SW 9.8 0.0 0.0
13:33 22.1 15.0 64 1010.6 8.3 W 9.8 0.0 0.0
13:37 21.9 14.6 63 1010.6 9.8 W 9.8 0.0 0.0
13:39 21.8 14.9 65 1010.6 8.3 SW 9.8 0.0 0.0
13:40 21.8 14.9 65 1010.6 9.2 W 9.8 0.0 0.0
13:43 21.8 15.2 66 1010.6 6.9 SW 9.8 0.0 0.0
13:49 21.9 15.5 67 1010.6 10.7 SW 10.7 0.0 0.0
13:52 21.9 15.5 67 1010.6 9.2 SW 10.7 0.0 0.0
13:55 21.8 15.6 68 1010.6 8.3 SSW 10.7 0.0 0.0
14:03 22.3 15.7 66 1010.6 8.3 S 9.2 0.0 0.0
14:04 22.4 15.5 65 1010.6 7.6 SW 9.2 0.0 0.0
14:05 22.4 15.5 65 1010.6 7.6 SW 9.2 0.0 0.0
14:06 22.5 15.1 63 1010.6 8.3 S 9.2 0.0 0.0
14:12 22.5 14.6 61 1010.6 8.3 W 9.8 0.0 0.0
14:13 22.4 15.5 65 1010.6 10.7 SW 10.7 0.0 0.0
14:16 22.0 15.1 65 1010.6 9.8 SW 10.7 0.0 0.0
14:21 22.0 15.8 68 1010.6 12.1 SW 12.1 0.0 0.0
14:24 21.9 16.0 69 1010.6 9.2 SW 12.1 0.0 0.0
14:32 22.3 16.6 70 1010.6 12.1 N 12.1 0.0 0.0
14:36 22.5 15.6 65 1010.6 10.7 SW 12.1 0.0 0.0
14:39 22.5 15.4 64 1010.6 10.7 SW 12.1 0.0 0.0
14:54 22.4 15.5 65 1010.6 10.7 SW 12.1 0.0 0.0
15:06 21.7 15.1 66 1010.6 9.2 S 12.1 0.0 0.0
10:50 21.7 17.9 79 1010.5 5.4 W 6.0 0.0 0.0
11:08 23.0 19.2 79 1010.5 4.5 W 5.4 0.0 0.0
11:14 22.4 18.8 80 1010.5 5.4 W 5.4 0.0 0.0
11:24 22.5 18.9 80 1010.5 5.4 SW 5.4 0.0 0.0
11:25 22.7 19.1 80 1010.5 9.2 SW 9.2 0.0 0.0
11:28 22.8 18.8 78 1010.5 6.0 SW 9.2 0.0 0.0
11:32 22.7 17.6 73 1010.5 6.0 W 9.2 0.0 0.0
11:42 22.5 17.9 75 1010.5 3.1 W 6.9 0.0 0.0
11:45 22.8 18.2 75 1010.5 6.0 SW 7.6 0.0 0.0
12:02 22.4 15.3 64 1010.5 8.3 W 11.4 0.0 0.0
12:27 22.9 15.3 62 1010.5 14.5 SW 14.5 0.0 0.0
12:38 22.7 14.8 61 1010.5 7.6 SW 10.7 0.0 0.0
12:54 22.1 14.5 62 1010.5 8.3 S 9.8 0.0 0.0
12:58 22.2 15.1 64 1010.5 9.8 SW 10.7 0.0 0.0
12:59 22.2 14.8 63 1010.5 9.2 SW 10.7 0.0 0.0
13:12 22.6 14.5 60 1010.5 8.3 S 12.1 0.0 0.0
13:14 22.4 15.0 63 1010.5 12.1 SW 12.1 0.0 0.0
13:16 22.4 15.0 63 1010.5 10.7 SW 12.1 0.0 0.0
13:20 22.4 14.8 62 1010.5 8.3 SW 12.1 0.0 0.0
13:26 22.4 15.5 65 1010.5 9.2 S 9.2 0.0 0.0
13:34 22.0 14.9 64 1010.5 7.6 SW 9.8 0.0 0.0
13:38 21.9 14.8 64 1010.5 8.3 S 9.8 0.0 0.0
13:53 21.9 15.5 67 1010.5 9.2 SW 10.7 0.0 0.0
13:54 21.8 15.4 67 1010.5 7.6 SW 10.7 0.0 0.0
13:56 21.8 15.4 67 1010.5 6.9 SW 10.7 0.0 0.0
14:07 22.6 15.0 62 1010.5 9.8 SW 9.8 0.0 0.0
14:08 22.6 15.0 62 1010.5 7.6 W 9.8 0.0 0.0
14:09 22.6 15.2 63 1010.5 9.8 SW 9.8 0.0 0.0
14:17 22.0 15.1 65 1010.5 7.6 SW 10.7 0.0 0.0
14:22 21.9 15.7 68 1010.5 12.1 S 12.1 0.0 0.0
14:25 21.9 16.0 69 1010.5 9.2 SW 12.1 0.0 0.0
14:26 21.9 16.0 69 1010.5 10.7 S 12.1 0.0 0.0
14:27 21.9 16.0 69 1010.5 8.3 SW 12.1 0.0 0.0
14:28 22.0 16.3 70 1010.5 11.4 SW 12.1 0.0 0.0
14:30 22.1 16.4 70 1010.5 9.8 SW 12.1 0.0 0.0
14:35 22.4 16.5 69 1010.5 9.2 SW 12.1 0.0 0.0
14:41 22.5 15.4 64 1010.5 6.9 SW 12.1 0.0 0.0
14:42 22.5 15.6 65 1010.5 10.7 W 12.1 0.0 0.0
14:43 22.6 15.5 64 1010.5 10.7 SW 11.4 0.0 0.0
14:47 22.6 15.5 64 1010.5 11.4 SW 11.4 0.0 0.0
14:49 22.6 15.2 63 1010.5 12.1 SW 12.1 0.0 0.0
14:52 22.4 15.8 66 1010.5 8.3 W 12.1 0.0 0.0
14:56 22.1 15.0 64 1010.5 9.8 SW 12.1 0.0 0.0
14:58 21.9 15.0 65 1010.5 6.9 SW 12.1 0.0 0.0
15:03 21.7 15.1 66 1010.5 10.7 SW 12.1 0.0 0.0
15:04 21.6 15.0 66 1010.5 9.8 SSE 12.1 0.0 0.0
15:05 21.6 15.2 67 1010.5 8.3 SW 12.1 0.0 0.0
15:07 21.7 15.3 67 1010.5 8.3 S 12.1 0.0 0.0
15:11 21.7 15.1 66 1010.5 13.0 SW 13.0 0.0 0.0
15:12 21.7 15.1 66 1010.5 10.7 SW 13.6 0.0 0.0
15:17 22.0 16.1 69 1010.5 9.2 SW 13.6 0.0 0.0
15:18 22.1 15.5 66 1010.5 10.7 SW 13.6 0.0 0.0
15:22 22.0 15.1 65 1010.5 9.2 W 12.1 0.0 0.0
11:27 22.8 18.8 78 1010.4 8.3 W 9.2 0.0 0.0
11:39 22.4 18.6 79 1010.4 6.0 S 6.9 0.0 0.0
12:12 21.9 16.0 69 1010.4 8.3 SW 12.1 0.0 0.0
12:15 21.9 15.5 67 1010.4 12.1 SW 12.1 0.0 0.0
12:25 22.8 15.4 63 1010.4 9.8 SW 12.1 0.0 0.0
13:19 22.3 14.9 63 1010.4 6.9 S 12.1 0.0 0.0
13:23 22.4 14.8 62 1010.4 9.2 SW 12.1 0.0 0.0
14:29 22.0 16.3 70 1010.4 11.4 SW 12.1 0.0 0.0
14:37 22.5 15.4 64 1010.4 10.7 SW 12.1 0.0 0.0
14:40 22.5 15.4 64 1010.4 11.4 SW 12.1 0.0 0.0
14:45 22.6 15.2 63 1010.4 9.2 SW 11.4 0.0 0.0
14:46 22.7 15.6 64 1010.4 11.4 SW 11.4 0.0 0.0
14:48 22.6 15.2 63 1010.4 12.1 SE 12.1 0.0 0.0
14:50 22.5 14.9 62 1010.4 11.4 SSE 12.1 0.0 0.0
14:51 22.5 14.9 62 1010.4 10.7 SW 12.1 0.0 0.0
14:53 22.4 15.8 66 1010.4 9.2 SW 12.1 0.0 0.0
14:57 22.0 14.9 64 1010.4 12.1 SSW 12.1 0.0 0.0
15:01 21.8 15.2 66 1010.4 8.3 S 12.1 0.0 0.0
15:02 21.7 14.8 65 1010.4 12.1 SW 12.1 0.0 0.0
15:09 21.7 15.1 66 1010.4 8.3 W 12.1 0.0 0.0
15:10 21.8 15.4 67 1010.4 11.4 S 12.1 0.0 0.0
15:14 21.7 15.3 67 1010.4 10.7 SW 13.6 0.0 0.0
15:15 21.8 15.6 68 1010.4 12.1 SW 13.6 0.0 0.0
15:21 22.0 14.9 64 1010.4 11.4 SW 13.6 0.0 0.0
15:26 22.1 15.2 65 1010.4 9.8 SW 12.1 0.0 0.0
15:27 22.1 15.2 65 1010.4 9.8 SW 11.4 0.0 0.0
15:29 22.1 15.0 64 1010.4 9.8 NW 11.4 0.0 0.0
15:31 22.2 15.1 64 1010.4 8.3 S 11.4 0.0 0.0
15:40 22.4 15.3 64 1010.4 7.6 SW 11.4 0.0 0.0
15:41 22.4 15.3 64 1010.4 9.2 S 11.4 0.0 0.0
16:04 21.5 14.4 64 1010.4 9.2 SW 12.1 0.0 0.0
12:23 22.7 15.1 62 1010.3 8.3 SW 12.1 0.0 0.0
13:45 21.8 15.4 67 1010.3 7.6 SW 9.8 0.0 0.0
14:19 21.9 15.5 67 1010.3 9.8 WNW 10.7 0.0 0.0
14:31 22.2 16.5 70 1010.3 8.3 SW 12.1 0.0 0.0
14:59 21.9 15.0 65 1010.3 6.9 SW 12.1 0.0 0.0
15:08 21.8 15.4 67 1010.3 8.3 S 12.1 0.0 0.0
15:16 22.0 16.1 69 1010.3 9.2 SW 13.6 0.0 0.0
15:19 22.0 15.1 65 1010.3 10.7 SW 13.6 0.0 0.0
15:23 22.1 15.2 65 1010.3 8.3 WNW 12.1 0.0 0.0
15:24 22.0 14.9 64 1010.3 8.3 SW 12.1 0.0 0.0
15:25 22.0 14.9 64 1010.3 8.3 SW 12.1 0.0 0.0
15:28 22.1 15.0 64 1010.3 9.8 SSW 11.4 0.0 0.0
15:30 22.2 14.8 63 1010.3 10.7 W 11.4 0.0 0.0
15:32 22.2 15.3 65 1010.3 7.6 S 10.7 0.0 0.0
15:34 22.3 15.4 65 1010.3 7.6 W 11.4 0.0 0.0
15:35 22.4 15.5 65 1010.3 9.8 SW 11.4 0.0 0.0
15:39 22.4 14.8 62 1010.3 9.2 NW 11.4 0.0 0.0
15:45 22.4 15.3 64 1010.3 9.2 SW 11.4 0.0 0.0
15:46 22.3 15.4 65 1010.3 9.8 S 11.4 0.0 0.0
15:51 22.1 14.7 63 1010.3 10.7 SW 11.4 0.0 0.0
15:52 22.0 14.6 63 1010.3 9.2 SW 11.4 0.0 0.0
15:57 21.7 14.4 63 1010.3 8.3 W 10.7 0.0 0.0
16:25 20.7 14.4 67 1010.3 9.2 SW 10.7 0.0 0.0
14:33 22.3 16.6 70 1010.2 12.1 SW 12.1 0.0 0.0
14:34 22.4 16.5 69 1010.2 7.6 SW 12.1 0.0 0.0
14:44 22.6 15.2 63 1010.2 9.2 W 11.4 0.0 0.0
15:00 21.8 15.2 66 1010.2 8.3 S 12.1 0.0 0.0
15:33 22.3 15.4 65 1010.2 11.4 W 11.4 0.0 0.0
15:36 22.4 15.0 63 1010.2 9.2 SW 11.4 0.0 0.0
15:37 22.4 15.0 63 1010.2 9.2 W 11.4 0.0 0.0
15:42 22.4 15.3 64 1010.2 9.2 W 11.4 0.0 0.0
15:44 22.4 15.3 64 1010.2 11.4 W 11.4 0.0 0.0
15:53 21.8 14.5 63 1010.2 9.2 SW 11.4 0.0 0.0
15:54 21.8 14.5 63 1010.2 8.3 SW 10.7 0.0 0.0
15:55 21.7 14.4 63 1010.2 10.7 SW 10.7 0.0 0.0
15:59 21.7 14.8 65 1010.2 9.2 SW 10.7 0.0 0.0
16:02 21.6 14.3 63 1010.2 12.1 W 12.1 0.0 0.0
16:06 21.4 14.1 63 1010.2 9.8 SW 12.1 0.0 0.0
16:09 21.3 14.2 64 1010.2 8.3 S 12.1 0.0 0.0
16:10 21.2 13.9 63 1010.2 8.3 S 12.1 0.0 0.0
16:12 21.0 13.7 63 1010.2 8.3 SE 12.1 0.0 0.0
16:13 20.9 13.6 63 1010.2 9.8 S 12.1 0.0 0.0
15:48 22.3 15.4 65 1010.1 7.6 S 11.4 0.0 0.0
15:49 22.3 15.4 65 1010.1 9.2 SW 11.4 0.0 0.0
16:00 21.7 14.6 64 1010.1 9.2 SW 10.7 0.0 0.0
16:01 21.7 14.6 64 1010.1 9.2 SW 10.7 0.0 0.0
16:03 21.5 14.4 64 1010.1 10.7 SW 12.1 0.0 0.0
16:11 21.1 14.0 64 1010.1 10.7 SW 12.1 0.0 0.0
16:18 20.7 13.9 65 1010.1 7.6 S 10.7 0.0 0.0
16:28 20.8 14.2 66 1010.1 9.2 S 12.1 0.0 0.0
16:53 20.4 14.3 68 1010.1 8.3 W 9.8 0.0 0.0
18:53 18.1 15.2 83 1010.1 6.9 SW 6.9 0.0 0.0
19:16 17.8 15.4 86 1010.1 4.5 SW 7.6 0.0 0.0
20:00 17.5 15.1 86 1010.1 2.2 SW 3.8 0.0 0.0
20:12 17.4 15.8 90 1010.1 2.2 W 4.5 0.0 0.0
20:25 17.4 15.8 90 1010.1 3.1 W 3.1 0.0 0.0
15:43 22.4 15.5 65 1010.0 8.3 S 11.4 0.0 0.0
15:47 22.3 15.2 64 1010.0 10.7 SW 11.4 0.0 0.0
15:58 21.7 14.6 64 1010.0 8.3 SW 10.7 0.0 0.0
16:07 21.4 14.3 64 1010.0 9.8 SW 12.1 0.0 0.0
16:20 20.7 13.4 63 1010.0 10.7 S 10.7 0.0 0.0
16:22 20.6 13.6 64 1010.0 9.8 S 10.7 0.0 0.0
16:23 20.6 13.6 64 1010.0 9.8 W 10.7 0.0 0.0
16:24 20.6 13.8 65 1010.0 9.8 SW 10.7 0.0 0.0
16:27 20.8 14.2 66 1010.0 9.8 S 12.1 0.0 0.0
16:29 20.9 14.8 68 1010.0 7.6 SW 12.1 0.0 0.0
16:35 20.9 13.6 63 1010.0 8.3 SW 12.1 0.0 0.0
16:37 20.8 13.5 63 1010.0 9.8 SW 12.1 0.0 0.0
16:46 20.6 13.8 65 1010.0 8.3 W 11.4 0.0 0.0
16:56 20.3 14.4 69 1010.0 9.2 W 9.8 0.0 0.0
16:57 20.3 14.4 69 1010.0 9.2 W 9.8 0.0 0.0
17:26 20.5 15.3 72 1010.0 6.9 W 8.3 0.0 0.0
19:29 17.7 15.3 86 1010.0 3.8 SW 6.0 0.0 0.0
19:30 17.6 15.2 86 1010.0 3.8 SW 6.0 0.0 0.0
19:31 17.6 15.2 86 1010.0 3.8 SW 6.0 0.0 0.0
19:35 17.6 15.2 86 1010.0 3.1 W 6.0 0.0 0.0
19:38 17.6 15.2 86 1010.0 3.8 SW 6.0 0.0 0.0
19:46 17.6 15.2 86 1010.0 3.8 NW 6.0 0.0 0.0
19:50 17.6 15.2 86 1010.0 3.1 W 6.0 0.0 0.0
19:55 17.6 15.2 86 1010.0 3.1 W 3.8 0.0 0.0
20:05 17.5 15.1 86 1010.0 2.2 SW 3.8 0.0 0.0
20:08 17.5 15.1 86 1010.0 3.1 SW 4.5 0.0 0.0
20:09 17.5 15.1 86 1010.0 3.1 SW 4.5 0.0 0.0
20:17 17.4 15.8 90 1010.0 1.6 NW 3.1 0.0 0.0
20:24 17.4 15.8 90 1010.0 1.6 SW 3.1 0.0 0.0
20:27 17.4 15.8 90 1010.0 1.6 S 3.1 0.0 0.0
20:28 17.4 15.8 90 1010.0 1.6 S 3.1 0.0 0.0
20:30 17.3 15.7 90 1010.0 2.2 SW 3.1 0.0 0.0
20:33 17.3 15.7 90 1010.0 2.2 SW 3.1 0.0 0.0
21:04 16.7 15.6 93 1010.0 3.8 SW 4.5 0.0 0.0
15:50 22.2 15.1 64 1009.9 10.7 W 11.4 0.0 0.0
16:05 21.5 14.7 65 1009.9 7.6 S 12.1 0.0 0.0
16:08 21.3 14.0 63 1009.9 10.7 SW 12.1 0.0 0.0
16:15 20.9 13.8 64 1009.9 9.2 SW 12.1 0.0 0.0
16:17 20.8 13.8 64 1009.9 9.2 SW 10.7 0.0 0.0
16:21 20.7 13.4 63 1009.9 9.8 S 10.7 0.0 0.0
16:30 20.9 14.6 67 1009.9 12.1 SW 12.1 0.0 0.0
16:31 21.0 14.2 65 1009.9 8.3 SW 12.1 0.0 0.0
16:32 20.9 13.8 64 1009.9 8.3 SW 12.1 0.0 0.0
16:36 20.8 13.3 62 1009.9 11.4 SW 12.1 0.0 0.0
16:38 20.7 13.4 63 1009.9 8.3 SW 12.1 0.0 0.0
16:39 20.7 13.7 64 1009.9 9.2 SW 12.1 0.0 0.0
16:40 20.7 13.9 65 1009.9 9.2 NW 12.1 0.0 0.0
16:42 20.6 14.0 66 1009.9 6.0 S 11.4 0.0 0.0
16:43 20.6 14.0 66 1009.9 8.3 W 11.4 0.0 0.0
16:44 20.6 14.3 67 1009.9 9.8 S 11.4 0.0 0.0
16:47 20.5 13.9 66 1009.9 7.6 S 9.8 0.0 0.0
17:09 20.0 14.6 71 1009.9 8.3 SW 9.2 0.0 0.0
17:23 20.8 15.6 72 1009.9 8.3 S 8.3 0.0 0.0
17:36 20.0 15.2 74 1009.9 3.8 SW 8.3 0.0 0.0
17:42 19.7 15.2 75 1009.9 6.9 SW 9.2 0.0 0.0
17:49 19.4 14.9 75 1009.9 6.0 SW 7.6 0.0 0.0
18:46 18.2 15.1 82 1009.9 6.0 SW 9.2 0.0 0.0
18:58 18.1 15.4 84 1009.9 5.4 SW 7.6 0.0 0.0
19:06 18.0 15.5 85 1009.9 6.0 SW 6.9 0.0 0.0
19:07 18.0 15.5 85 1009.9 7.6 SW 7.6 0.0 0.0
19:13 17.9 15.5 86 1009.9 5.4 SW 7.6 0.0 0.0
19:14 17.9 15.5 86 1009.9 5.4 SW 7.6 0.0 0.0
19:17 17.8 15.4 86 1009.9 3.8 S 6.0 0.0 0.0
19:27 17.7 15.3 86 1009.9 5.4 SW 6.0 0.0 0.0
19:34 17.6 15.2 86 1009.9 3.1 S 6.0 0.0 0.0
19:36 17.6 15.2 86 1009.9 3.8 W 6.0 0.0 0.0
19:41 17.6 15.2 86 1009.9 5.4 SW 5.4 0.0 0.0
19:44 17.6 15.2 86 1009.9 5.4 SW 6.0 0.0 0.0
19:48 17.6 15.2 86 1009.9 2.2 W 6.0 0.0 0.0
19:52 17.6 15.2 86 1009.9 3.1 W 6.0 0.0 0.0
19:54 17.6 15.2 86 1009.9 3.1 SW 4.5 0.0 0.0
20:01 17.5 15.1 86 1009.9 2.2 SW 3.8 0.0 0.0
20:03 17.5 15.1 86 1009.9 2.2 SW 3.8 0.0 0.0
20:04 17.5 15.1 86 1009.9 2.2 SW 3.8 0.0 0.0
20:10 17.5 15.1 86 1009.9 2.2 SW 4.5 0.0 0.0
20:11 17.5 15.1 86 1009.9 2.2 SW 4.5 0.0 0.0
20:13 17.4 15.8 90 1009.9 2.2 W 4.5 0.0 0.0
20:14 17.4 15.8 90 1009.9 1.6 W 4.5 0.0 0.0
20:15 17.4 15.8 90 1009.9 1.6 SW 4.5 0.0 0.0
20:23 17.4 15.8 90 1009.9 2.2 NW 3.1 0.0 0.0
20:26 17.4 15.8 90 1009.9 1.6 W 3.1 0.0 0.0
20:29 17.4 15.8 90 1009.9 1.6 W 3.1 0.0 0.0
20:31 17.3 15.7 90 1009.9 2.2 SW 3.1 0.0 0.0
20:32 17.3 15.7 90 1009.9 2.2 S 3.1 0.0 0.0
20:37 17.2 15.6 90 1009.9 3.1 SW 3.8 0.0 0.0
20:42 17.1 15.6 91 1009.9 3.8 S 4.5 0.0 0.0
20:49 17.0 15.7 92 1009.9 3.1 SW 6.0 0.0 0.0
20:57 16.7 15.6 93 1009.9 3.8 SW 4.5 0.0 0.0
20:59 16.7 15.6 93 1009.9 3.1 SW 4.5 0.0 0.0
21:00 16.7 15.6 93 1009.9 3.8 SW 4.5 0.0 0.0
21:07 16.6 15.6 94 1009.9 3.8 SW 3.8 0.0 0.0
21:12 16.6 15.6 94 1009.9 3.1 SW 3.8 0.0 0.0
16:19 20.7 13.7 64 1009.8 9.8 SW 10.7 0.0 0.0
16:26 20.8 14.2 66 1009.8 12.1 SW 12.1 0.0 0.0
16:34 20.9 13.8 64 1009.8 9.8 S 12.1 0.0 0.0
16:41 20.7 13.9 65 1009.8 7.6 SW 11.4 0.0 0.0
16:45 20.6 14.0 66 1009.8 9.8 SW 11.4 0.0 0.0
16:50 20.4 13.8 66 1009.8 7.6 SW 9.8 0.0 0.0
16:51 20.4 14.1 67 1009.8 9.2 SW 9.8 0.0 0.0
16:59 20.3 14.7 70 1009.8 6.9 SW 9.8 0.0 0.0
17:07 20.1 14.7 71 1009.8 7.6 SW 9.2 0.0 0.0
17:14 20.2 15.2 73 1009.8 4.5 W 9.8 0.0 0.0
17:25 20.6 15.4 72 1009.8 7.6 SW 8.3 0.0 0.0
17:28 20.4 15.2 72 1009.8 7.6 SW 8.3 0.0 0.0
17:30 20.2 15.2 73 1009.8 8.3 SW 8.3 0.0 0.0
17:40 19.8 15.0 74 1009.8 7.6 W 9.2 0.0 0.0
17:43 19.6 15.1 75 1009.8 6.9 SW 9.2 0.0 0.0
17:44 19.6 15.1 75 1009.8 7.6 SW 9.2 0.0 0.0
17:45 19.5 15.0 75 1009.8 7.6 SW 9.2 0.0 0.0
17:47 19.4 14.9 75 1009.8 6.9 SW 9.2 0.0 0.0
17:51 19.3 15.0 76 1009.8 6.9 S 7.6 0.0 0.0
18:06 19.0 15.3 79 1009.8 6.9 SW 8.3 0.0 0.0
18:10 19.0 15.3 79 1009.8 5.4 S 8.3 0.0 0.0
18:20 18.7 15.4 81 1009.8 6.0 S 8.3 0.0 0.0
18:38 18.4 15.3 82 1009.8 7.6 W 9.2 0.0 0.0
18:44 18.3 15.2 82 1009.8 6.9 SW 9.2 0.0 0.0
18:47 18.2 15.1 82 1009.8 6.0 SW 7.6 0.0 0.0
18:49 18.2 15.3 83 1009.8 6.0 SW 7.6 0.0 0.0
18:50 18.2 15.3 83 1009.8 5.4 SW 6.9 0.0 0.0
18:52 18.1 15.2 83 1009.8 4.5 W 6.9 0.0 0.0
18:54 18.1 15.4 84 1009.8 5.4 SW 6.9 0.0 0.0
18:55 18.1 15.4 84 1009.8 7.6 S 7.6 0.0 0.0
18:59 18.1 15.4 84 1009.8 6.9 SW 7.6 0.0 0.0
19:01 18.0 15.3 84 1009.8 6.9 W 7.6 0.0 0.0
19:02 18.0 15.3 84 1009.8 6.9 W 7.6 0.0 0.0
19:03 18.0 15.3 84 1009.8 6.9 W 7.6 0.0 0.0
19:08 17.9 15.4 85 1009.8 5.4 SW 7.6 0.0 0.0
19:12 17.9 15.5 86 1009.8 4.5 SW 7.6 0.0 0.0
19:15 17.9 15.5 86 1009.8 6.0 SW 7.6 0.0 0.0
19:18 17.8 15.4 86 1009.8 6.0 SW 6.0 0.0 0.0
19:19 17.8 15.4 86 1009.8 5.4 SW 6.0 0.0 0.0
19:20 17.8 15.4 86 1009.8 6.0 W 6.0 0.0 0.0
19:22 17.8 15.4 86 1009.8 4.5 S 6.0 0.0 0.0
19:24 17.7 15.3 86 1009.8 3.8 SW 6.0 0.0 0.0
19:26 17.7 15.3 86 1009.8 5.4 SW 6.0 0.0 0.0
19:28 17.7 15.3 86 1009.8 3.8 WNW 6.0 0.0 0.0
19:32 17.6 15.2 86 1009.8 4.5 SW 6.0 0.0 0.0
19:42 17.6 15.2 86 1009.8 6.0 W 6.0 0.0 0.0
19:43 17.6 15.2 86 1009.8 4.5 SW 6.0 0.0 0.0
19:49 17.6 15.2 86 1009.8 2.2 W 6.0 0.0 0.0
19:53 17.6 15.2 86 1009.8 3.8 W 5.4 0.0 0.0
19:57 17.5 15.1 86 1009.8 2.2 SW 3.8 0.0 0.0
19:59 17.5 15.1 86 1009.8 2.2 W 3.8 0.0 0.0
20:02 17.5 15.1 86 1009.8 2.2 SW 3.8 0.0 0.0
20:06 17.5 15.1 86 1009.8 4.5 SW 4.5 0.0 0.0
20:18 17.4 15.8 90 1009.8 3.1 W 3.1 0.0 0.0
20:19 17.4 15.8 90 1009.8 3.1 W 3.1 0.0 0.0
20:20 17.4 15.8 90 1009.8 3.1 W 3.1 0.0 0.0
20:21 17.4 15.8 90 1009.8 3.1 W 3.1 0.0 0.0
20:34 17.3 15.7 90 1009.8 2.2 SW 3.1 0.0 0.0
20:36 17.2 15.6 90 1009.8 3.1 S 3.8 0.0 0.0
20:39 17.2 15.7 91 1009.8 3.1 SW 3.8 0.0 0.0
20:40 17.1 15.6 91 1009.8 4.5 SW 4.5 0.0 0.0
20:43 17.1 15.6 91 1009.8 3.1 SSW 4.5 0.0 0.0
20:45 17.0 15.5 91 1009.8 4.5 SW 4.5 0.0 0.0
20:46 17.0 15.7 92 1009.8 3.1 SW 6.0 0.0 0.0
20:47 17.0 15.7 92 1009.8 3.1 S 6.0 0.0 0.0
20:48 17.0 15.7 92 1009.8 3.1 S 6.0 0.0 0.0
20:53 16.8 15.5 92 1009.8 4.5 S 6.0 0.0 0.0
20:58 16.7 15.6 93 1009.8 3.8 SW 4.5 0.0 0.0
21:01 16.7 15.6 93 1009.8 3.8 SW 4.5 0.0 0.0
21:02 16.7 15.6 93 1009.8 3.8 SW 4.5 0.0 0.0
21:08 16.6 15.6 94 1009.8 3.8 SW 3.8 0.0 0.0
21:11 16.6 15.6 94 1009.8 3.8 S 3.8 0.0 0.0
21:14 16.6 15.6 94 1009.8 3.1 SW 3.8 0.0 0.0
21:16 16.5 15.5 94 1009.8 2.2 S 3.8 0.0 0.0
21:20 16.5 15.5 94 1009.8 3.1 SW 3.8 0.0 0.0
22:35 15.9 15.9 100 1009.8 5.4 S 8.3 0.0 0.0
16:16 20.8 13.8 64 1009.7 9.2 S 10.7 0.0 0.0
16:48 20.5 13.9 66 1009.7 9.2 SW 9.8 0.0 0.0
16:49 20.4 13.8 66 1009.7 6.9 S 9.8 0.0 0.0
16:54 20.4 14.3 68 1009.7 6.9 S 9.8 0.0 0.0
16:55 20.4 14.3 68 1009.7 7.6 S 9.2 0.0 0.0
16:58 20.3 14.7 70 1009.7 6.9 S 9.8 0.0 0.0
17:00 20.3 14.7 70 1009.7 7.6 SW 9.8 0.0 0.0
17:02 20.3 14.7 70 1009.7 7.6 SW 9.8 0.0 0.0
17:04 20.2 14.6 70 1009.7 6.0 NW 9.8 0.0 0.0
17:06 20.1 14.5 70 1009.7 7.6 WSW 9.2 0.0 0.0
17:11 20.0 14.6 71 1009.7 9.8 SW 9.8 0.0 0.0
17:12 20.1 14.9 72 1009.7 6.9 SW 9.8 0.0 0.0
17:13 20.1 14.9 72 1009.7 6.9 SW 9.8 0.0 0.0
17:16 20.3 15.3 73 1009.7 6.0 W 9.8 0.0 0.0
17:20 20.9 16.1 74 1009.7 6.9 SW 9.8 0.0 0.0
17:21 20.9 15.9 73 1009.7 5.4 S 9.8 0.0 0.0
17:22 20.9 15.9 73 1009.7 8.3 SW 9.8 0.0 0.0
17:29 20.4 15.2 72 1009.7 7.6 SW 8.3 0.0 0.0
17:33 20.0 15.0 73 1009.7 6.0 W 8.3 0.0 0.0
17:34 20.0 15.2 74 1009.7 6.9 S 8.3 0.0 0.0
17:35 20.0 15.2 74 1009.7 6.9 SW 8.3 0.0 0.0
17:46 19.5 15.0 75 1009.7 7.6 SW 9.2 0.0 0.0
17:52 19.3 15.0 76 1009.7 6.9 SW 7.6 0.0 0.0
17:53 19.3 15.0 76 1009.7 8.3 SW 8.3 0.0 0.0
17:54 19.3 15.0 76 1009.7 9.2 SW 9.2 0.0 0.0
17:56 19.2 15.1 77 1009.7 6.9 S 9.2 0.0 0.0
17:58 19.2 15.1 77 1009.7 7.6 SW 9.2 0.0 0.0
18:01 19.1 15.0 77 1009.7 8.3 SW 9.2 0.0 0.0
18:03 19.0 14.9 77 1009.7 7.6 S 9.2 0.0 0.0
18:12 18.9 15.4 80 1009.7 7.6 S 7.6 0.0 0.0
18:21 18.7 15.4 81 1009.7 6.9 SW 8.3 0.0 0.0
18:27 18.6 15.3 81 1009.7 7.6 SW 9.2 0.0 0.0
18:31 18.6 15.5 82 1009.7 7.6 SW 9.2 0.0 0.0
18:32 18.5 15.4 82 1009.7 7.6 SW 9.2 0.0 0.0
18:33 18.5 15.4 82 1009.7 7.6 SW 9.2 0.0 0.0
18:40 18.3 15.2 82 1009.7 6.0 SW 9.2 0.0 0.0
18:43 18.3 15.2 82 1009.7 6.0 SW 9.2 0.0 0.0
18:48 18.2 15.3 83 1009.7 6.0 S 7.6 0.0 0.0
19:00 18.0 15.3 84 1009.7 6.9 W 7.6 0.0 0.0
19:04 18.0 15.3 84 1009.7 6.9 W 7.6 0.0 0.0
19:05 18.0 15.3 84 1009.7 6.9 W 7.6 0.0 0.0
19:09 17.9 15.4 85 1009.7 4.5 SW 7.6 0.0 0.0
19:10 17.9 15.4 85 1009.7 6.0 WSW 7.6 0.0 0.0
19:11 17.9 15.4 85 1009.7 4.5 SW 7.6 0.0 0.0
19:25 17.7 15.3 86 1009.7 3.8 SW 6.0 0.0 0.0
19:37 17.6 15.2 86 1009.7 3.8 W 6.0 0.0 0.0
19:40 17.6 15.2 86 1009.7 5.4 W 5.4 0.0 0.0
19:45 17.6 15.2 86 1009.7 4.5 W 6.0 0.0 0.0
19:47 17.6 15.2 86 1009.7 3.8 W 6.0 0.0 0.0
19:51 17.6 15.2 86 1009.7 3.1 SW 6.0 0.0 0.0
19:58 17.5 15.1 86 1009.7 3.8 W 3.8 0.0 0.0
20:07 17.5 15.1 86 1009.7 3.8 SW 4.5 0.0 0.0
20:22 17.4 15.8 90 1009.7 3.1 W 3.1 0.0 0.0
20:38 17.2 15.7 91 1009.7 3.1 SW 3.8 0.0 0.0
20:41 17.1 15.6 91 1009.7 4.5 SW 4.5 0.0 0.0
20:44 17.1 15.6 91 1009.7 3.8 SW 4.5 0.0 0.0
20:50 16.9 15.6 92 1009.7 3.8 SW 6.0 0.0 0.0
20:51 16.9 15.6 92 1009.7 4.5 S 6.0 0.0 0.0
20:52 16.8 15.5 92 1009.7 3.8 W 6.0 0.0 0.0
20:55 16.8 15.5 92 1009.7 3.1 SW 6.0 0.0 0.0
20:56 16.7 15.6 93 1009.7 3.1 S 4.5 0.0 0.0
21:03 16.7 15.6 93 1009.7 3.8 SW 4.5 0.0 0.0
21:06 16.6 15.6 94 1009.7 2.2 SW 3.8 0.0 0.0
21:09 16.6 15.6 94 1009.7 3.8 SW 3.8 0.0 0.0
21:15 16.6 15.6 94 1009.7 3.1 SW 3.8 0.0 0.0
21:17 16.5 15.5 94 1009.7 2.2 S 3.8 0.0 0.0
21:18 16.5 15.5 94 1009.7 2.2 S 3.8 0.0 0.0
21:19 16.5 15.5 94 1009.7 1.6 SW 3.8 0.0 0.0
21:21 16.5 15.7 95 1009.7 2.2 SW 3.1 0.0 0.0
21:22 16.5 15.7 95 1009.7 1.6 S 3.1 0.0 0.0
21:26 16.4 15.6 95 1009.7 2.2 S 3.1 0.0 0.0
21:28 16.4 15.6 95 1009.7 2.2 SW 3.1 0.0 0.0
21:32 16.4 15.6 95 1009.7 3.1 S 3.1 0.0 0.0
21:33 16.4 15.6 95 1009.7 3.1 SW 3.1 0.0 0.0
21:48 16.2 15.6 96 1009.7 4.5 S 5.4 0.0 0.0
21:49 16.2 15.6 96 1009.7 4.5 S 5.4 0.0 0.0
21:51 16.1 15.5 96 1009.7 2.2 S 5.4 0.0 0.0
22:00 16.1 15.6 97 1009.7 3.1 SE 3.8 0.0 0.0
22:01 16.1 15.6 97 1009.7 4.5 SW 4.5 0.0 0.0
22:10 16.1 15.8 98 1009.7 4.5 S 4.5 0.0 0.0
22:11 16.1 15.8 98 1009.7 3.8 SW 4.5 0.0 0.0
22:15 16.1 16.0 99 1009.7 3.1 SW 4.5 0.0 0.0
22:17 16.1 16.0 99 1009.7 3.8 SW 4.5 0.0 0.0
22:22 16.1 16.0 99 1009.7 4.5 S 4.5 0.0 0.0
22:27 16.1 16.0 99 1009.7 5.4 S 5.4 0.0 0.0
22:29 16.0 16.0 100 1009.7 6.9 S 6.9 0.0 0.0
22:30 16.0 16.0 100 1009.7 8.3 S 8.3 0.0 0.0
22:32 15.9 15.9 100 1009.7 4.5 S 8.3 0.0 0.0
17:01 20.3 14.7 70 1009.6 7.6 SW 9.8 0.0 0.0
17:03 20.2 14.6 70 1009.6 8.3 SW 9.8 0.0 0.0
17:05 20.1 14.5 70 1009.6 9.2 SW 9.8 0.0 0.0
17:10 20.0 14.6 71 1009.6 9.8 SW 9.8 0.0 0.0
17:15 20.3 15.3 73 1009.6 6.0 W 9.8 0.0 0.0
17:17 20.6 15.8 74 1009.6 6.9 S 9.8 0.0 0.0
17:18 20.8 16.0 74 1009.6 7.6 SW 9.8 0.0 0.0
17:24 20.7 15.5 72 1009.6 7.6 W 8.3 0.0 0.0
17:27 20.5 15.3 72 1009.6 8.3 SW 8.3 0.0 0.0
17:37 19.9 15.1 74 1009.6 7.6 SW 8.3 0.0 0.0
17:38 19.8 15.0 74 1009.6 9.2 SW 9.2 0.0 0.0
17:41 19.7 14.9 74 1009.6 6.9 SW 9.2 0.0 0.0
17:55 19.3 15.0 76 1009.6 6.0 SW 9.2 0.0 0.0
17:57 19.2 15.1 77 1009.6 6.0 S 9.2 0.0 0.0
17:59 19.1 15.0 77 1009.6 5.4 W 9.2 0.0 0.0
18:00 19.1 15.0 77 1009.6 8.3 SW 9.2 0.0 0.0
18:05 19.0 15.3 79 1009.6 6.0 SW 8.3 0.0 0.0
18:07 19.0 15.3 79 1009.6 5.4 S 8.3 0.0 0.0
18:08 19.0 15.3 79 1009.6 5.4 S 8.3 0.0 0.0
18:09 19.0 15.3 79 1009.6 5.4 S 8.3 0.0 0.0
18:13 18.9 15.4 80 1009.6 7.6 SW 7.6 0.0 0.0
18:17 18.8 15.3 80 1009.6 6.0 SW 8.3 0.0 0.0
18:18 18.8 15.5 81 1009.6 6.9 SW 8.3 0.0 0.0
18:19 18.7 15.4 81 1009.6 7.6 SW 8.3 0.0 0.0
18:26 18.6 15.3 81 1009.6 6.9 SW 9.2 0.0 0.0
18:30 18.6 15.3 81 1009.6 6.0 W 9.2 0.0 0.0
18:35 18.4 15.3 82 1009.6 9.2 SW 9.2 0.0 0.0
18:36 18.4 15.3 82 1009.6 9.2 W 9.2 0.0 0.0
18:37 18.4 15.3 82 1009.6 6.9 SW 9.2 0.0 0.0
18:39 18.4 15.3 82 1009.6 7.6 W 9.2 0.0 0.0
18:42 18.3 15.2 82 1009.6 5.4 S 9.2 0.0 0.0
18:45 18.2 15.1 82 1009.6 6.0 SW 9.2 0.0 0.0
18:51 18.1 15.2 83 1009.6 4.5 SW 6.9 0.0 0.0
18:56 18.1 15.4 84 1009.6 6.0 SW 7.6 0.0 0.0
19:23 17.7 15.3 86 1009.6 4.5 SW 6.0 0.0 0.0
19:33 17.6 15.2 86 1009.6 3.8 S 6.0 0.0 0.0
21:05 16.7 15.6 93 1009.6 3.8 SW 3.8 0.0 0.0
21:10 16.6 15.6 94 1009.6 3.8 SW 3.8 0.0 0.0
21:23 16.5 15.7 95 1009.6 2.2 S 3.1 0.0 0.0
21:24 16.5 15.7 95 1009.6 2.2 SW 3.1 0.0 0.0
21:27 16.4 15.6 95 1009.6 2.2 SW 3.1 0.0 0.0
21:30 16.4 15.6 95 1009.6 2.2 SW 3.1 0.0 0.0
21:35 16.3 15.5 95 1009.6 3.1 SW 3.1 0.0 0.0
21:37 16.3 15.5 95 1009.6 2.2 SW 3.1 0.0 0.0
21:39 16.3 15.7 96 1009.6 2.2 SW 3.1 0.0 0.0
21:44 16.2 15.6 96 1009.6 5.4 SSW 5.4 0.0 0.0
21:45 16.2 15.6 96 1009.6 5.4 SSW 5.4 0.0 0.0
21:46 16.2 15.6 96 1009.6 4.5 SW 5.4 0.0 0.0
21:47 16.2 15.6 96 1009.6 4.5 SW 5.4 0.0 0.0
21:57 16.1 15.6 97 1009.6 3.8 SW 4.5 0.0 0.0
21:59 16.1 15.6 97 1009.6 3.8 S 3.8 0.0 0.0
22:03 16.1 15.6 97 1009.6 3.8 SW 4.5 0.0 0.0
22:06 16.1 15.6 97 1009.6 3.8 SW 4.5 0.0 0.0
22:20 16.1 16.0 99 1009.6 4.5 S 4.5 0.0 0.0
22:21 16.1 16.0 99 1009.6 4.5 S 4.5 0.0 0.0
22:26 16.1 16.0 99 1009.6 5.4 S 5.4 0.0 0.0
22:33 15.9 15.9 100 1009.6 6.9 S 8.3 0.0 0.0
22:45 15.8 15.7 99 1009.6 5.4 S 5.4 0.0 0.0
22:58 15.5 15.4 99 1009.6 5.4 S 8.3 0.0 0.0
23:01 15.5 15.4 99 1009.6 6.9 S 7.6 0.0 0.0
17:19 20.9 16.1 74 1009.5 5.4 SW 9.8 0.0 0.0
17:32 20.1 15.1 73 1009.5 7.6 NW 8.3 0.0 0.0
17:50 19.4 14.9 75 1009.5 6.9 SW 7.6 0.0 0.0
18:02 19.1 15.0 77 1009.5 7.6 SW 9.2 0.0 0.0
18:11 18.9 15.4 80 1009.5 7.6 SW 8.3 0.0 0.0
18:15 18.8 15.3 80 1009.5 8.3 S 8.3 0.0 0.0
18:23 18.7 15.4 81 1009.5 9.2 SW 9.2 0.0 0.0
18:24 18.7 15.4 81 1009.5 7.6 W 9.2 0.0 0.0
18:25 18.6 15.3 81 1009.5 6.9 SW 9.2 0.0 0.0
18:28 18.6 15.3 81 1009.5 6.9 SW 9.2 0.0 0.0
18:29 18.6 15.3 81 1009.5 6.9 S 9.2 0.0 0.0
18:34 18.5 15.4 82 1009.5 6.0 W 9.2 0.0 0.0
21:25 16.4 15.6 95 1009.5 2.2 SW 3.1 0.0 0.0
21:36 16.3 15.5 95 1009.5 3.1 S 3.1 0.0 0.0
21:38 16.3 15.7 96 1009.5 3.1 S 3.1 0.0 0.0
21:41 16.2 15.6 96 1009.5 3.1 S 3.1 0.0 0.0
21:42 16.2 15.6 96 1009.5 3.8 SW 3.8 0.0 0.0
21:43 16.2 15.6 96 1009.5 3.8 SW 3.8 0.0 0.0
21:52 16.1 15.5 96 1009.5 2.2 S 5.4 0.0 0.0
21:53 16.1 15.6 97 1009.5 3.1 S 5.4 0.0 0.0
21:54 16.1 15.6 97 1009.5 3.1 S 5.4 0.0 0.0
21:56 16.1 15.6 97 1009.5 3.8 SW 4.5 0.0 0.0
22:04 16.1 15.6 97 1009.5 3.8 SW 4.5 0.0 0.0
22:07 16.1 15.6 97 1009.5 3.8 SW 4.5 0.0 0.0
22:13 16.1 16.0 99 1009.5 3.8 SW 4.5 0.0 0.0
22:14 16.1 16.0 99 1009.5 3.1 SW 4.5 0.0 0.0
22:19 16.1 16.0 99 1009.5 3.1 S 4.5 0.0 0.0
22:23 16.1 16.0 99 1009.5 5.4 S 5.4 0.0 0.0
22:24 16.1 16.0 99 1009.5 5.4 S 5.4 0.0 0.0
22:25 16.1 16.0 99 1009.5 5.4 S 5.4 0.0 0.0
22:28 16.1 16.0 99 1009.5 5.4 S 5.4 0.0 0.0
22:31 16.0 16.0 100 1009.5 8.3 S 8.3 0.0 0.0
22:40 15.8 15.7 99 1009.5 5.4 SW 8.3 0.0 0.0
22:41 15.8 15.7 99 1009.5 5.4 S 6.9 0.0 0.0
22:44 15.8 15.7 99 1009.5 5.4 S 6.9 0.0 0.0
22:55 15.6 15.5 99 1009.5 7.6 S 8.3 0.0 0.0
23:00 15.5 15.4 99 1009.5 6.9 S 7.6 0.0 0.0
17:39 19.8 15.0 74 1009.4 7.6 SW 9.2 0.0 0.0
18:14 18.8 15.3 80 1009.4 8.3 S 8.3 0.0 0.0
18:16 18.8 15.3 80 1009.4 6.0 SW 8.3 0.0 0.0
21:29 16.4 15.6 95 1009.4 2.2 SW 3.1 0.0 0.0
21:31 16.4 15.6 95 1009.4 3.1 S 3.1 0.0 0.0
21:34 16.3 15.5 95 1009.4 3.1 SW 3.1 0.0 0.0
21:50 16.1 15.5 96 1009.4 2.2 S 5.4 0.0 0.0
21:55 16.1 15.6 97 1009.4 2.2 SW 4.5 0.0 0.0
22:02 16.1 15.6 97 1009.4 3.8 SW 4.5 0.0 0.0
22:05 16.1 15.6 97 1009.4 3.8 SW 4.5 0.0 0.0
22:08 16.1 15.8 98 1009.4 3.1 SW 4.5 0.0 0.0
22:09 16.1 15.8 98 1009.4 3.8 S 4.5 0.0 0.0
22:12 16.1 16.0 99 1009.4 3.1 S 4.5 0.0 0.0
22:16 16.1 16.0 99 1009.4 3.1 SW 4.5 0.0 0.0
22:34 15.9 15.9 100 1009.4 6.9 S 8.3 0.0 0.0
22:36 15.9 15.9 100 1009.4 5.4 S 8.3 0.0 0.0
22:39 15.8 15.7 99 1009.4 5.4 S 8.3 0.0 0.0
22:42 15.8 15.7 99 1009.4 5.4 S 6.9 0.0 0.0
22:43 15.8 15.7 99 1009.4 5.4 S 6.9 0.0 0.0
22:46 15.7 15.6 99 1009.4 7.6 SE 7.6 0.0 0.0
22:47 15.7 15.6 99 1009.4 6.9 S 7.6 0.0 0.0
22:48 15.7 15.6 99 1009.4 8.3 S 8.3 0.0 0.0
22:49 15.7 15.6 99 1009.4 8.3 S 8.3 0.0 0.0
22:50 15.6 15.5 99 1009.4 6.9 S 8.3 0.0 0.0
22:52 15.6 15.5 99 1009.4 6.0 S 8.3 0.0 0.0
22:54 15.6 15.5 99 1009.4 6.9 S 8.3 0.0 0.0
22:59 15.5 15.4 99 1009.4 5.4 S 8.3 0.0 0.0
22:38 15.9 15.9 100 1009.3 5.4 S 8.3 0.0 0.0
23:02 15.5 15.4 99 1009.3 6.9 S 7.6 0.0 0.0
23:03 15.5 15.4 99 1009.3 6.9 S 7.6 0.0 0.0
23:06 15.5 15.4 99 1009.3 6.9 S 7.6 0.0 0.0
23:14 15.4 15.3 99 1009.3 6.0 SW 7.6 0.0 0.0
23:20 15.3 15.2 99 1009.3 5.4 S 7.6 0.0 0.0
22:51 15.6 15.5 99 1009.2 6.9 S 8.3 0.0 0.0
22:53 15.6 15.5 99 1009.2 6.9 S 8.3 0.0 0.0
22:57 15.6 15.5 99 1009.2 7.6 S 8.3 0.0 0.0
23:04 15.5 15.4 99 1009.2 6.9 S 7.6 0.0 0.0
23:05 15.5 15.4 99 1009.2 6.9 S 7.6 0.0 0.0
23:07 15.5 15.4 99 1009.2 6.0 SW 7.6 0.0 0.0
23:09 15.4 15.3 99 1009.2 6.9 S 6.9 0.0 0.0
23:11 15.4 15.3 99 1009.2 6.0 S 7.6 0.0 0.0
23:12 15.4 15.3 99 1009.2 5.4 SE 7.6 0.0 0.0
23:18 15.3 15.2 99 1009.2 6.0 S 7.6 0.0 0.0
23:30 15.3 15.2 99 1009.2 6.0 WSW 6.0 0.0 0.0
23:08 15.5 15.4 99 1009.1 6.0 SW 6.9 0.0 0.0
23:16 15.4 15.3 99 1009.1 7.6 S 7.6 0.0 0.0
23:19 15.3 15.2 99 1009.1 6.0 S 7.6 0.0 0.0
23:10 15.4 15.3 99 1009.0 7.6 SW 7.6 0.0 0.0
23:13 15.4 15.3 99 1009.0 5.4 SW 7.6 0.0 0.0
23:17 15.4 15.3 99 1009.0 7.6 S 7.6 0.0 0.0
23:22 15.3 15.2 99 1009.0 3.8 SW 7.6 0.0 0.0
23:26 15.3 15.2 99 1009.0 5.4 S 7.6 0.0 0.0
23:27 15.3 15.2 99 1009.0 5.4 S 7.6 0.0 0.0
23:28 15.3 15.2 99 1009.0 5.4 S 6.0 0.0 0.0
23:21 15.3 15.2 99 1008.9 4.5 SW 7.6 0.0 0.0
23:29 15.3 15.2 99 1008.9 5.4 S 6.0 0.0 0.0
23:34 15.2 15.1 99 1008.9 5.4 S 6.0 0.0 0.0
23:36 15.2 15.1 99 1008.9 6.0 SW 6.0 0.0 0.0
23:38 15.2 15.1 99 1008.9 6.0 SSW 6.0 0.0 0.0
23:42 15.2 15.1 99 1008.9 5.4 S 8.3 0.0 0.0
23:43 15.2 15.1 99 1008.9 5.4 S 8.3 0.0 0.0
23:45 15.2 15.1 99 1008.9 5.4 SW 8.3 0.0 0.0
23:46 15.2 15.1 99 1008.9 3.8 SW 8.3 0.0 0.0
23:32 15.2 15.1 99 1008.8 5.4 S 6.0 0.0 0.0
23:35 15.2 15.1 99 1008.8 6.0 SW 6.0 0.0 0.0
23:39 15.2 15.1 99 1008.8 8.3 S 8.3 0.0 0.0
23:47 15.2 15.1 99 1008.8 3.1 SW 8.3 0.0 0.0
23:49 15.1 15.0 99 1008.8 4.5 W 6.9 0.0 0.0
23:51 15.1 15.0 99 1008.8 6.0 SE 6.9 0.0 0.0
23:33 15.2 15.1 99 1008.7 5.4 S 6.0 0.0 0.0
23:37 15.2 15.1 99 1008.7 6.0 S 6.0 0.0 0.0
23:40 15.2 15.1 99 1008.7 4.5 SW 8.3 0.0 0.0
23:41 15.2 15.1 99 1008.7 6.9 S 8.3 0.0 0.0
23:52 15.1 15.0 99 1008.7 6.0 S 6.0 0.0 0.0
23:53 15.1 15.0 99 1008.7 4.5 S 6.0 0.0 0.0
23:55 15.1 15.0 99 1008.7 4.5 SE 6.0 0.0 0.0
23:56 15.1 15.0 99 1008.7 6.0 SW 6.0 0.0 0.0
23:57 15.1 15.0 99 1008.7 5.4 SW 6.0 0.0 0.0
23:59 15.1 15.0 99 1008.7 6.0 SW 6.9 0.0 0.0
23:44 15.2 15.1 99 1008.6 5.4 SW 8.3 0.0 0.0
23:48 15.2 15.1 99 1008.6 3.1 SW 8.3 0.0 0.0
23:54 15.1 15.0 99 1008.6 4.5 SW 6.0 0.0 0.0
23:58 15.1 15.0 99 1008.3 6.9 SE 6.9 0.0 0.0

 

 

UK - WEATHER STATION TOPSITES - UK World Weather Websites

Copyright © Carnkie Weather 2009 - 2022.